| time (UTC) | temp F | wind direction | speed MPH | gust MPH | rain 1hr in | rain 24hr in | rain mn in | humidity % | barometer mb |
| 20260831103852 | 59 | 264 | 1.0 | 3.0 | 0.00 | 0.02 | 0.00 | 63 | 1022.4 |
| 20260831103752 | 59 | 264 | 1.0 | 3.0 | 0.00 | 0.02 | 0.00 | 63 | 1022.4 |
| 20260831103700 | 59 | 264 | 1.0 | 3.0 | 0.00 | 0.02 | 0.00 | 63 | 1022.5 |
| 20260831103452 | 59 | 264 | 1.0 | 3.0 | 0.00 | 0.02 | 0.00 | 64 | 1022.4 |
| 20260831103352 | 59 | 264 | 1.0 | 3.0 | 0.00 | 0.02 | 0.00 | 65 | 1022.4 |
| 20260831103248 | 59 | 264 | 1.0 | 3.0 | 0.00 | 0.02 | 0.00 | 65 | 1022.4 |
| 20260831103155 | 59 | 264 | 2.0 | 3.0 | 0.00 | 0.02 | 0.00 | 65 | 1022.4 |
| 20260831102955 | 59 | 264 | 2.0 | 3.0 | 0.00 | 0.02 | 0.00 | 66 | 1022.4 |
| 20260831102759 | 59 | 264 | 2.0 | 3.0 | 0.00 | 0.02 | 0.00 | 67 | 1022.5 |
| 20260831102753 | 59 | 264 | 1.0 | 3.0 | 0.00 | 0.02 | 0.00 | 68 | 1022.4 |
| 20260831102548 | 59 | 264 | 1.0 | 3.0 | 0.00 | 0.02 | 0.00 | 68 | 1022.4 |
| 20260831102447 | 59 | 190 | 1.0 | 3.0 | 0.00 | 0.02 | 0.00 | 68 | 1022.4 |
| 20260831102348 | 59 | 190 | 1.0 | 3.0 | 0.00 | 0.02 | 0.00 | 69 | 1022.4 |
| 20260831102246 | 59 | 190 | 1.0 | 3.0 | 0.00 | 0.02 | 0.00 | 69 | 1022.4 |
| 20260831102150 | 60 | 190 | 1.0 | 3.0 | 0.00 | 0.02 | 0.00 | 69 | 1022.4 |
| 20260831101942 | 60 | 190 | 1.0 | 3.0 | 0.00 | 0.02 | 0.00 | 69 | 1022.4 |
| 20260831101842 | 60 | 190 | 1.0 | 3.0 | 0.00 | 0.02 | 0.00 | 69 | 1022.4 |
| 20260831101753 | 60 | 190 | 1.0 | 3.0 | 0.00 | 0.02 | 0.00 | 68 | 1022.4 |
| 20260831101747 | 60 | 190 | 1.0 | 4.0 | 0.00 | 0.02 | 0.00 | 68 | 1022.4 |
| 20260831101542 | 60 | 190 | 2.0 | 4.0 | 0.00 | 0.02 | 0.00 | 68 | 1022.4 |
| 20260831101442 | 60 | 190 | 2.0 | 4.0 | 0.00 | 0.02 | 0.00 | 68 | 1022.5 |
| 20260831101342 | 60 | 190 | 2.0 | 4.0 | 0.00 | 0.02 | 0.00 | 68 | 1022.4 |
| 20260831101242 | 60 | 190 | 2.0 | 4.0 | 0.00 | 0.02 | 0.00 | 68 | 1022.4 |
| 20260831101142 | 60 | 190 | 2.0 | 4.0 | 0.00 | 0.02 | 0.00 | 68 | 1022.4 |
| 20260831101042 | 60 | 190 | 2.0 | 4.0 | 0.00 | 0.02 | 0.00 | 67 | 1022.4 |
| 20260831100942 | 60 | 190 | 2.0 | 5.0 | 0.00 | 0.02 | 0.00 | 67 | 1022.4 |
| 20260831100842 | 60 | 190 | 2.0 | 5.0 | 0.00 | 0.02 | 0.00 | 67 | 1022.4 |
| 20260831100742 | 60 | 190 | 2.0 | 5.0 | 0.00 | 0.02 | 0.00 | 67 | 1022.5 |
| 20260831100651 | 60 | 190 | 3.0 | 5.0 | 0.00 | 0.02 | 0.00 | 67 | 1022.5 |
| 20260831100642 | 60 | 190 | 3.0 | 6.0 | 0.00 | 0.02 | 0.00 | 67 | 1022.5 |
| 20260831100542 | 61 | 190 | 3.0 | 6.0 | 0.00 | 0.02 | 0.00 | 67 | 1022.5 |
| 20260831100448 | 61 | 190 | 3.0 | 6.0 | 0.00 | 0.02 | 0.00 | 66 | 1022.4 |
| 20260831100243 | 61 | 162 | 3.0 | 6.0 | 0.00 | 0.02 | 0.00 | 66 | 1022.4 |
| 20260831100138 | 61 | 162 | 3.0 | 6.0 | 0.00 | 0.02 | 0.00 | 66 | 1022.4 |
| 20260831100038 | 61 | 162 | 3.0 | 6.0 | 0.00 | 0.02 | 0.00 | 66 | 1022.4 |
| 20260831095939 | 61 | 186 | 3.0 | 6.0 | 0.00 | 0.02 | 0.00 | 65 | 1022.4 |
| 20260831095904 | 61 | 152 | 3.0 | 6.0 | 0.00 | 0.02 | 0.00 | 65 | 1022.4 |
| 20260831095750 | 61 | 160 | 3.0 | 6.0 | 0.00 | 0.02 | 0.00 | 66 | 1022.4 |
| 20260831095438 | 61 | 172 | 2.0 | 5.0 | 0.00 | 0.02 | 0.00 | 65 | 1022.2 |
| 20260831095406 | 61 | 161 | 2.0 | 5.0 | 0.00 | 0.02 | 0.00 | 65 | 1022.2 |
| 20260831095138 | 61 | 127 | 1.0 | 4.0 | 0.00 | 0.02 | 0.00 | 65 | 1022.2 |
| 20260831095038 | 61 | 127 | 1.0 | 4.0 | 0.00 | 0.02 | 0.00 | 64 | 1022.3 |
| 20260831094938 | 62 | 127 | 1.0 | 4.0 | 0.00 | 0.02 | 0.00 | 64 | 1022.3 |
| 20260831094838 | 62 | 127 | 1.0 | 4.0 | 0.00 | 0.02 | 0.00 | 63 | 1022.3 |
| 20260831094738 | 62 | 127 | 1.0 | 4.0 | 0.00 | 0.02 | 0.00 | 63 | 1022.3 |
| 20260831094638 | 62 | 127 | 1.0 | 4.0 | 0.00 | 0.02 | 0.00 | 63 | 1022.3 |
| 20260831094538 | 62 | 127 | 1.0 | 4.0 | 0.00 | 0.02 | 0.00 | 63 | 1022.2 |
| 20260831094439 | 62 | 127 | 1.0 | 4.0 | 0.00 | 0.02 | 0.00 | 63 | 1022.2 |
| 20260831094338 | 62 | 277 | 1.0 | 4.0 | 0.00 | 0.02 | 0.00 | 63 | 1022.2 |
| 20260831094234 | 62 | 277 | 1.0 | 4.0 | 0.00 | 0.02 | 0.00 | 63 | 1022.2 |
| 20260831094134 | 62 | 277 | 1.0 | 4.0 | 0.00 | 0.02 | 0.00 | 63 | 1022.2 |
| 20260831094034 | 62 | 277 | 1.0 | 4.0 | 0.00 | 0.02 | 0.00 | 63 | 1022.2 |
| 20260831093934 | 62 | 277 | 1.0 | 4.0 | 0.00 | 0.02 | 0.00 | 63 | 1022.2 |
| 20260831093834 | 62 | 277 | 2.0 | 4.0 | 0.00 | 0.02 | 0.00 | 63 | 1022.0 |
| 20260831093745 | 62 | 277 | 2.0 | 4.0 | 0.00 | 0.02 | 0.00 | 63 | 1022.0 |
| 20260831093738 | 62 | 277 | 2.0 | 4.0 | 0.00 | 0.02 | 0.00 | 63 | 1022.0 |
| 20260831093534 | 62 | 192 | 1.0 | 4.0 | 0.00 | 0.02 | 0.00 | 64 | 1022.0 |
| 20260831093434 | 62 | 192 | 1.0 | 4.0 | 0.00 | 0.02 | 0.00 | 64 | 1022.0 |
| 20260831093334 | 62 | 192 | 1.0 | 4.0 | 0.00 | 0.02 | 0.00 | 65 | 1022.0 |
| 20260831093234 | 62 | 307 | 1.0 | 3.0 | 0.00 | 0.02 | 0.00 | 66 | 1022.0 |
| 20260831093152 | 62 | 307 | 1.0 | 3.0 | 0.00 | 0.02 | 0.00 | 66 | 1022.0 |
| 20260831093134 | 62 | 307 | 1.0 | 3.0 | 0.00 | 0.02 | 0.00 | 66 | 1021.9 |
| 20260831093041 | 62 | 307 | 1.0 | 3.0 | 0.00 | 0.02 | 0.00 | 66 | 1022.0 |
| 20260831092835 | 62 | 307 | 1.0 | 3.0 | 0.00 | 0.02 | 0.00 | 67 | 1022.0 |
| 20260831092734 | 62 | 307 | 0.0 | 3.0 | 0.00 | 0.02 | 0.00 | 67 | 1022.0 |
| 20260831092634 | 62 | 307 | 0.0 | 2.0 | 0.00 | 0.02 | 0.00 | 68 | 1022.0 |
| 20260831092541 | 62 | 307 | 0.0 | 2.0 | 0.00 | 0.02 | 0.00 | 67 | 1022.0 |
| 20260831092330 | 62 | 307 | 0.0 | 1.0 | 0.00 | 0.02 | 0.00 | 68 | 1021.9 |
| 20260831092258 | 62 | 307 | 0.0 | 1.0 | 0.00 | 0.02 | 0.00 | 68 | 1022.0 |
| 20260831092130 | 62 | 307 | 0.0 | 2.0 | 0.00 | 0.02 | 0.00 | 68 | 1022.0 |
| 20260831092030 | 62 | 307 | 0.0 | 2.0 | 0.00 | 0.02 | 0.00 | 67 | 1022.0 |
| 20260831091930 | 62 | 307 | 0.0 | 2.0 | 0.00 | 0.02 | 0.00 | 67 | 1022.0 |
| 20260831091830 | 62 | 307 | 1.0 | 2.0 | 0.00 | 0.02 | 0.00 | 67 | 1022.2 |
| 20260831091741 | 62 | 307 | 1.0 | 2.0 | 0.00 | 0.02 | 0.00 | 67 | 1022.2 |
| 20260831091735 | 62 | 307 | 1.0 | 2.0 | 0.00 | 0.02 | 0.00 | 67 | 1022.2 |
| 20260831091529 | 62 | 307 | 1.0 | 2.0 | 0.00 | 0.02 | 0.00 | 67 | 1022.0 |
| 20260831091430 | 62 | 307 | 1.0 | 2.0 | 0.00 | 0.02 | 0.00 | 67 | 1022.0 |
| 20260831091330 | 62 | 307 | 1.0 | 2.0 | 0.00 | 0.02 | 0.00 | 68 | 1022.0 |
| 20260831091230 | 62 | 307 | 1.0 | 2.0 | 0.00 | 0.02 | 0.00 | 68 | 1022.0 |
| 20260831091151 | 62 | 307 | 1.0 | 2.0 | 0.00 | 0.02 | 0.00 | 68 | 1022.0 |
| 20260831091137 | 62 | 307 | 1.0 | 2.0 | 0.00 | 0.02 | 0.00 | 68 | 1021.9 |
| 20260831090929 | 62 | 307 | 1.0 | 2.0 | 0.00 | 0.02 | 0.00 | 68 | 1021.9 |
| 20260831090830 | 63 | 307 | 0.0 | 2.0 | 0.00 | 0.02 | 0.00 | 68 | 1021.9 |
| 20260831090758 | 63 | 307 | 0.0 | 2.0 | 0.00 | 0.02 | 0.00 | 68 | 1021.9 |
| 20260831090630 | 63 | 307 | 0.0 | 2.0 | 0.00 | 0.02 | 0.00 | 68 | 1021.9 |
| 20260831090530 | 63 | 307 | 1.0 | 3.0 | 0.00 | 0.02 | 0.00 | 68 | 1022.0 |
| 20260831090427 | 63 | 307 | 1.0 | 4.0 | 0.00 | 0.02 | 0.00 | 68 | 1022.0 |
| 20260831090326 | 63 | 307 | 1.0 | 4.0 | 0.00 | 0.02 | 0.00 | 68 | 1022.0 |
| 20260831090226 | 63 | 307 | 1.0 | 4.0 | 0.00 | 0.02 | 0.00 | 68 | 1022.0 |
| 20260831090152 | 63 | 307 | 1.0 | 4.0 | 0.00 | 0.02 | 0.00 | 68 | 1022.0 |
| 20260831090126 | 63 | 307 | 2.0 | 4.0 | 0.00 | 0.02 | 0.00 | 68 | 1022.0 |
| 20260831090026 | 63 | 307 | 2.0 | 4.0 | 0.00 | 0.02 | 0.00 | 68 | 1022.0 |
| 20260831085939 | 63 | 307 | 2.0 | 4.0 | 0.00 | 0.02 | 0.00 | 68 | 1022.0 |
| 20260831085626 | 63 | 307 | 2.0 | 4.0 | 0.00 | 0.02 | 0.00 | 68 | 1021.9 |
| 20260831085526 | 63 | 307 | 2.0 | 4.0 | 0.00 | 0.02 | 0.00 | 69 | 1021.9 |
| 20260831085432 | 63 | 307 | 2.0 | 4.0 | 0.00 | 0.02 | 0.00 | 69 | 1021.9 |
| 20260831085238 | 63 | 307 | 2.0 | 4.0 | 0.00 | 0.02 | 0.00 | 69 | 1021.9 |
| 20260831085231 | 63 | 307 | 2.0 | 4.0 | 0.00 | 0.02 | 0.00 | 69 | 1021.9 |
| 20260831085033 | 63 | 307 | 2.0 | 4.0 | 0.00 | 0.02 | 0.00 | 68 | 1021.9 |
| 20260831084827 | 63 | 307 | 2.0 | 4.0 | 0.00 | 0.02 | 0.00 | 66 | 1021.9 |
| 20260831084726 | 63 | 307 | 2.0 | 4.0 | 0.00 | 0.02 | 0.00 | 66 | 1021.9 |
| 20260831084627 | 63 | 307 | 2.0 | 4.0 | 0.00 | 0.02 | 0.00 | 67 | 1021.9 |
| 20260831084522 | 63 | 307 | 3.0 | 5.0 | 0.00 | 0.02 | 0.00 | 67 | 1021.9 |
| 20260831084421 | 63 | 307 | 3.0 | 5.0 | 0.00 | 0.02 | 0.00 | 67 | 1021.9 |
| 20260831084320 | 63 | 307 | 3.0 | 5.0 | 0.00 | 0.02 | 0.00 | 67 | 1021.9 |
| 20260831084220 | 63 | 307 | 3.0 | 5.0 | 0.00 | 0.02 | 0.00 | 67 | 1021.9 |
| 20260831084149 | 63 | 307 | 3.0 | 5.0 | 0.00 | 0.02 | 0.00 | 67 | 1021.9 |
| 20260831084117 | 63 | 307 | 3.0 | 5.0 | 0.00 | 0.02 | 0.00 | 67 | 1021.9 |
| 20260831084012 | 63 | 307 | 3.0 | 5.0 | 0.00 | 0.02 | 0.00 | 68 | 1022.0 |
| 20260831083912 | 63 | 307 | 3.0 | 5.0 | 0.00 | 0.02 | 0.00 | 68 | 1022.0 |
| 20260831083812 | 63 | 307 | 3.0 | 5.0 | 0.00 | 0.02 | 0.00 | 68 | 1022.0 |
| 20260831083725 | 63 | 314 | 3.0 | 5.0 | 0.00 | 0.02 | 0.00 | 69 | 1022.0 |
| 20260831083719 | 63 | 321 | 3.0 | 5.0 | 0.00 | 0.02 | 0.00 | 69 | 1022.0 |
| 20260831083408 | 63 | 311 | 2.0 | 5.0 | 0.00 | 0.02 | 0.00 | 69 | 1022.2 |
| 20260831083308 | 63 | 311 | 2.0 | 4.0 | 0.00 | 0.02 | 0.00 | 69 | 1022.2 |
| 20260831083206 | 63 | 311 | 2.0 | 4.0 | 0.00 | 0.02 | 0.00 | 69 | 1022.2 |
| 20260831083148 | 63 | 311 | 2.0 | 4.0 | 0.00 | 0.02 | 0.00 | 69 | 1022.2 |
| 20260831083104 | 63 | 311 | 2.0 | 5.0 | 0.00 | 0.02 | 0.00 | 69 | 1022.2 |
| 20260831083000 | 63 | 311 | 2.0 | 5.0 | 0.00 | 0.02 | 0.00 | 69 | 1022.2 |
| 20260831082904 | 63 | 311 | 3.0 | 5.0 | 0.00 | 0.02 | 0.00 | 69 | 1022.2 |
| 20260831082648 | 63 | 311 | 2.0 | 5.0 | 0.00 | 0.02 | 0.00 | 69 | 1022.2 |
| 20260831082555 | 62 | 311 | 2.0 | 5.0 | 0.00 | 0.02 | 0.00 | 69 | 1022.3 |
| 20260831082456 | 62 | 311 | 2.0 | 5.0 | 0.00 | 0.02 | 0.00 | 70 | 1022.3 |
| 20260831082354 | 62 | 311 | 2.0 | 5.0 | 0.00 | 0.02 | 0.00 | 70 | 1022.3 |
| 20260831082254 | 62 | 311 | 2.0 | 5.0 | 0.00 | 0.02 | 0.00 | 70 | 1022.3 |
| 20260831082158 | 62 | 311 | 2.0 | 5.0 | 0.00 | 0.02 | 0.00 | 70 | 1022.3 |
| 20260831081900 | 62 | 280 | 1.0 | 3.0 | 0.00 | 0.02 | 0.00 | 70 | 1022.3 |
| 20260831081642 | 62 | 355 | 1.0 | 3.0 | 0.00 | 0.02 | 0.00 | 70 | 1022.3 |
| 20260831081541 | 62 | 355 | 1.0 | 3.0 | 0.00 | 0.02 | 0.00 | 70 | 1022.2 |
| 20260831081438 | 62 | 355 | 1.0 | 3.0 | 0.00 | 0.02 | 0.00 | 70 | 1022.0 |
| 20260831081336 | 62 | 355 | 1.0 | 3.0 | 0.00 | 0.02 | 0.00 | 70 | 1022.0 |
| 20260831081236 | 62 | 355 | 0.0 | 3.0 | 0.00 | 0.02 | 0.00 | 70 | 1022.2 |
| 20260831081136 | 62 | 355 | 0.0 | 3.0 | 0.00 | 0.02 | 0.00 | 70 | 1022.2 |
| 20260831081039 | 62 | 355 | 0.0 | 3.0 | 0.00 | 0.02 | 0.00 | 69 | 1022.2 |
| 20260831080839 | 62 | 355 | 1.0 | 3.0 | 0.00 | 0.02 | 0.00 | 69 | 1022.2 |
| 20260831080643 | 63 | 355 | 1.0 | 4.0 | 0.00 | 0.02 | 0.00 | 69 | 1022.2 |
| 20260831080631 | 63 | 355 | 1.0 | 4.0 | 0.00 | 0.02 | 0.00 | 69 | 1022.0 |
| 20260831080527 | 63 | 355 | 1.0 | 4.0 | 0.00 | 0.02 | 0.00 | 69 | 1022.2 |
| 20260831080424 | 63 | 355 | 1.0 | 4.0 | 0.00 | 0.02 | 0.00 | 69 | 1022.2 |
| 20260831080322 | 63 | 355 | 2.0 | 4.0 | 0.00 | 0.02 | 0.00 | 68 | 1022.2 |
| 20260831080222 | 63 | 355 | 2.0 | 4.0 | 0.00 | 0.02 | 0.00 | 68 | 1022.3 |
| 20260831080120 | 63 | 355 | 2.0 | 4.0 | 0.00 | 0.02 | 0.00 | 68 | 1022.3 |
| 20260831080023 | 63 | 355 | 2.0 | 4.0 | 0.00 | 0.02 | 0.00 | 68 | 1022.3 |
| 20260831075815 | 63 | 355 | 1.0 | 4.0 | 0.00 | 0.02 | 0.00 | 68 | 1022.3 |
| 20260831075712 | 63 | 355 | 1.0 | 4.0 | 0.00 | 0.02 | 0.00 | 68 | 1022.3 |
| 20260831075643 | 63 | 28 | 1.0 | 4.0 | 0.00 | 0.02 | 0.00 | 68 | 1022.3 |
| 20260831075612 | 63 | 28 | 1.0 | 4.0 | 0.00 | 0.02 | 0.00 | 68 | 1022.3 |
| 20260831075510 | 63 | 9 | 1.0 | 3.0 | 0.00 | 0.02 | 0.00 | 68 | 1022.4 |
| 20260831075413 | 63 | 240 | 1.0 | 3.0 | 0.00 | 0.02 | 0.00 | 67 | 1022.4 |
| 20260831075206 | 63 | 240 | 1.0 | 3.0 | 0.00 | 0.02 | 0.00 | 67 | 1022.3 |
| 20260831075143 | 63 | 240 | 1.0 | 3.0 | 0.00 | 0.02 | 0.00 | 67 | 1022.4 |
| 20260831075106 | 63 | 240 | 1.0 | 3.0 | 0.00 | 0.02 | 0.00 | 67 | 1022.4 |
| 20260831075003 | 63 | 240 | 1.0 | 3.0 | 0.00 | 0.02 | 0.00 | 67 | 1022.3 |
| 20260831074909 | 63 | 240 | 1.0 | 3.0 | 0.00 | 0.02 | 0.00 | 67 | 1022.3 |
| 20260831074702 | 63 | 240 | 1.0 | 3.0 | 0.00 | 0.02 | 0.00 | 67 | 1022.3 |
| 20260831074636 | 63 | 240 | 1.0 | 3.0 | 0.00 | 0.02 | 0.00 | 67 | 1022.4 |
| 20260831074600 | 63 | 240 | 1.0 | 3.0 | 0.00 | 0.02 | 0.00 | 67 | 1022.4 |
| 20260831074457 | 63 | 240 | 1.0 | 3.0 | 0.00 | 0.02 | 0.00 | 67 | 1022.4 |
| 20260831074351 | 63 | 240 | 1.0 | 3.0 | 0.00 | 0.02 | 0.00 | 67 | 1022.5 |
| 20260831074252 | 63 | 240 | 0.0 | 3.0 | 0.00 | 0.02 | 0.00 | 67 | 1022.5 |
| 20260831074152 | 63 | 240 | 0.0 | 2.0 | 0.00 | 0.02 | 0.00 | 67 | 1022.5 |
| 20260831074131 | 63 | 240 | 0.0 | 2.0 | 0.00 | 0.02 | 0.00 | 67 | 1022.6 |
| 20260831074053 | 63 | 112 | 0.0 | 2.0 | 0.00 | 0.02 | 0.00 | 67 | 1022.6 |
| 20260831073951 | 63 | 112 | 0.0 | 2.0 | 0.00 | 0.02 | 0.00 | 67 | 1022.5 |
| 20260831073852 | 63 | 112 | 0.0 | 2.0 | 0.00 | 0.02 | 0.00 | 67 | 1022.5 |
| 20260831073750 | 64 | 112 | 0.0 | 2.0 | 0.00 | 0.02 | 0.00 | 67 | 1022.5 |
| 20260831073650 | 64 | 112 | 0.0 | 2.0 | 0.00 | 0.02 | 0.00 | 67 | 1022.5 |
| 20260831073625 | 64 | 112 | 0.0 | 3.0 | 0.00 | 0.02 | 0.00 | 67 | 1022.5 |
| 20260831073547 | 64 | 112 | 0.0 | 3.0 | 0.00 | 0.02 | 0.00 | 67 | 1022.5 |
| 20260831073447 | 64 | 112 | 1.0 | 3.0 | 0.00 | 0.02 | 0.00 | 67 | 1022.5 |
| 20260831073240 | 64 | 112 | 1.0 | 3.0 | 0.00 | 0.02 | 0.00 | 67 | 1022.6 |
| 20260831073119 | 64 | 112 | 1.0 | 3.0 | 0.00 | 0.02 | 0.00 | 67 | 1022.6 |
| 20260831073040 | 64 | 112 | 1.0 | 3.0 | 0.00 | 0.02 | 0.00 | 67 | 1022.6 |
| 20260831072939 | 64 | 112 | 0.0 | 3.0 | 0.00 | 0.02 | 0.00 | 67 | 1022.8 |
| 20260831072847 | 64 | 112 | 0.0 | 3.0 | 0.00 | 0.02 | 0.00 | 67 | 1022.8 |
| 20260831072614 | 64 | 112 | 0.0 | 2.0 | 0.00 | 0.02 | 0.00 | 67 | 1022.6 |
| 20260831072534 | 64 | 112 | 0.0 | 2.0 | 0.00 | 0.02 | 0.00 | 66 | 1022.6 |
| 20260831072433 | 64 | 112 | 1.0 | 3.0 | 0.00 | 0.02 | 0.00 | 66 | 1022.6 |
| 20260831072334 | 64 | 112 | 1.0 | 3.0 | 0.00 | 0.02 | 0.00 | 66 | 1022.8 |
| 20260831072233 | 64 | 112 | 1.0 | 3.0 | 0.00 | 0.02 | 0.00 | 66 | 1022.8 |
| 20260831072107 | 64 | 112 | 1.0 | 3.0 | 0.00 | 0.02 | 0.00 | 66 | 1022.6 |
| 20260831072030 | 64 | 112 | 1.0 | 3.0 | 0.00 | 0.02 | 0.00 | 66 | 1022.8 |
| 20260831071927 | 64 | 112 | 2.0 | 3.0 | 0.00 | 0.02 | 0.00 | 66 | 1022.8 |
| 20260831071826 | 64 | 112 | 2.0 | 3.0 | 0.00 | 0.02 | 0.00 | 66 | 1022.8 |
| 20260831071741 | 64 | 112 | 2.0 | 3.0 | 0.00 | 0.02 | 0.00 | 66 | 1022.8 |
| 20260831071628 | 64 | 112 | 2.0 | 3.0 | 0.00 | 0.02 | 0.00 | 66 | 1022.8 |
| 20260831071422 | 64 | 112 | 2.0 | 3.0 | 0.00 | 0.02 | 0.00 | 66 | 1022.8 |
| 20260831071318 | 64 | 112 | 2.0 | 3.0 | 0.00 | 0.02 | 0.00 | 65 | 1022.9 |
| 20260831071216 | 64 | 112 | 2.0 | 3.0 | 0.00 | 0.02 | 0.00 | 65 | 1022.9 |
| 20260831071117 | 64 | 112 | 2.0 | 3.0 | 0.00 | 0.02 | 0.00 | 65 | 1022.9 |
| 20260831071054 | 64 | 112 | 2.0 | 3.0 | 0.00 | 0.02 | 0.00 | 65 | 1022.9 |
| 20260831071016 | 64 | 112 | 2.0 | 3.0 | 0.00 | 0.02 | 0.00 | 65 | 1022.8 |
| 20260831070915 | 64 | 112 | 1.0 | 3.0 | 0.00 | 0.02 | 0.00 | 65 | 1022.8 |
| 20260831070812 | 64 | 112 | 1.0 | 3.0 | 0.00 | 0.02 | 0.00 | 66 | 1022.8 |
| 20260831070709 | 64 | 112 | 1.0 | 3.0 | 0.00 | 0.02 | 0.00 | 66 | 1022.9 |
| 20260831070610 | 64 | 112 | 1.0 | 3.0 | 0.00 | 0.02 | 0.00 | 66 | 1022.8 |
| 20260831070549 | 64 | 112 | 1.0 | 3.0 | 0.00 | 0.02 | 0.00 | 66 | 1022.8 |
| 20260831070509 | 64 | 112 | 1.0 | 3.0 | 0.00 | 0.02 | 0.00 | 66 | 1022.8 |
| 20260831070410 | 65 | 112 | 1.0 | 3.0 | 0.00 | 0.02 | 0.00 | 66 | 1022.8 |
| 20260831070304 | 65 | 112 | 1.0 | 3.0 | 0.00 | 0.02 | 0.00 | 66 | 1022.8 |
| 20260831070204 | 65 | 112 | 1.0 | 3.0 | 0.00 | 0.02 | 0.00 | 65 | 1022.8 |
| 20260831070104 | 65 | 112 | 1.0 | 4.0 | 0.00 | 0.02 | 0.00 | 65 | 1022.8 |
| 20260831070044 | 65 | 112 | 1.0 | 4.0 | 0.00 | 0.02 | 0.00 | 65 | 1022.8 |
| 20260831070004 | 65 | 112 | 1.0 | 4.0 | 0.00 | 0.02 | 0.00 | 65 | 1022.8 |
| 20260831065903 | 65 | 112 | 1.0 | 4.0 | 0.00 | 0.02 | 0.00 | 65 | 1022.8 |
| 20260831065759 | 65 | 112 | 1.0 | 4.0 | 0.00 | 0.02 | 0.00 | 65 | 1022.9 |
| 20260831065657 | 65 | 112 | 1.0 | 4.0 | 0.00 | 0.02 | 0.00 | 65 | 1022.8 |
| 20260831065536 | 65 | 112 | 2.0 | 4.0 | 0.00 | 0.02 | 0.00 | 65 | 1022.8 |
| 20260831065458 | 65 | 112 | 2.0 | 4.0 | 0.00 | 0.02 | 0.00 | 64 | 1022.8 |
| 20260831065357 | 65 | 112 | 2.0 | 4.0 | 0.00 | 0.02 | 0.00 | 64 | 1022.8 |
| 20260831065306 | 65 | 112 | 2.0 | 4.0 | 0.00 | 0.02 | 0.00 | 64 | 1022.8 |
| 20260831065030 | 65 | 136 | 1.0 | 6.0 | 0.00 | 0.02 | 0.00 | 64 | 1022.9 |
| 20260831064952 | 65 | 136 | 1.0 | 6.0 | 0.00 | 0.02 | 0.00 | 64 | 1022.9 |
| 20260831064852 | 65 | 136 | 1.0 | 6.0 | 0.00 | 0.02 | 0.00 | 64 | 1022.8 |
| 20260831064748 | 65 | 136 | 1.0 | 6.0 | 0.00 | 0.02 | 0.00 | 63 | 1022.8 |
| 20260831064645 | 66 | 136 | 1.0 | 6.0 | 0.00 | 0.02 | 0.00 | 63 | 1022.8 |
| 20260831064558 | 66 | 136 | 1.0 | 6.0 | 0.00 | 0.02 | 0.00 | 63 | 1022.8 |
| 20260831064551 | 66 | 136 | 1.0 | 6.0 | 0.00 | 0.02 | 0.00 | 63 | 1022.9 |
| 20260831064345 | 66 | 136 | 1.0 | 6.0 | 0.00 | 0.02 | 0.00 | 63 | 1022.9 |
| 20260831064240 | 66 | 136 | 1.0 | 6.0 | 0.00 | 0.02 | 0.00 | 62 | 1022.8 |
| 20260831064140 | 66 | 136 | 1.0 | 6.0 | 0.00 | 0.02 | 0.00 | 61 | 1022.9 |
| 20260831064040 | 66 | 136 | 1.0 | 6.0 | 0.00 | 0.02 | 0.00 | 61 | 1022.8 |
| 20260831064018 | 66 | 136 | 2.0 | 6.0 | 0.00 | 0.02 | 0.00 | 61 | 1022.8 |
| 20260831063940 | 66 | 136 | 2.0 | 8.0 | 0.00 | 0.02 | 0.00 | 61 | 1022.8 |
| 20260831063839 | 66 | 136 | 2.0 | 8.0 | 0.00 | 0.02 | 0.00 | 61 | 1022.8 |
| 20260831063738 | 67 | 136 | 2.0 | 8.0 | 0.00 | 0.02 | 0.00 | 61 | 1022.9 |
| 20260831063638 | 67 | 136 | 2.0 | 8.0 | 0.00 | 0.02 | 0.00 | 61 | 1022.8 |
| 20260831063515 | 67 | 136 | 2.0 | 8.0 | 0.00 | 0.02 | 0.00 | 60 | 1022.8 |
| 20260831063435 | 67 | 136 | 2.0 | 8.0 | 0.00 | 0.02 | 0.00 | 60 | 1022.8 |
| 20260831063334 | 67 | 136 | 2.0 | 8.0 | 0.00 | 0.02 | 0.00 | 60 | 1022.8 |
| 20260831063228 | 67 | 141 | 2.0 | 8.0 | 0.00 | 0.02 | 0.00 | 60 | 1022.8 |
| 20260831063128 | 67 | 127 | 1.0 | 8.0 | 0.00 | 0.02 | 0.00 | 58 | 1022.8 |
| 20260831063028 | 68 | 129 | 1.0 | 8.0 | 0.00 | 0.02 | 0.00 | 57 | 1022.9 |
| 20260831063015 | 68 | 145 | 1.0 | 8.0 | 0.00 | 0.02 | 0.00 | 57 | 1022.9 |
| 20260831062928 | 68 | 144 | 1.0 | 5.0 | 0.00 | 0.02 | 0.00 | 57 | 1022.9 |
| 20260831062827 | 68 | 146 | 1.0 | 5.0 | 0.00 | 0.02 | 0.00 | 56 | 1022.9 |
| 20260831062723 | 68 | 160 | 1.0 | 4.0 | 0.00 | 0.02 | 0.00 | 56 | 1022.9 |
| 20260831062622 | 68 | 120 | 1.0 | 4.0 | 0.00 | 0.02 | 0.00 | 55 | 1022.9 |
| 20260831062522 | 69 | 120 | 1.0 | 4.0 | 0.00 | 0.02 | 0.00 | 54 | 1022.9 |
| 20260831062515 | 69 | 120 | 1.0 | 5.0 | 0.00 | 0.02 | 0.00 | 54 | 1022.9 |
| 20260831062421 | 69 | 120 | 2.0 | 5.0 | 0.00 | 0.02 | 0.00 | 54 | 1022.8 |
| 20260831062322 | 69 | 120 | 2.0 | 7.0 | 0.00 | 0.02 | 0.00 | 54 | 1022.9 |
| 20260831062222 | 69 | 120 | 3.0 | 8.0 | 0.00 | 0.02 | 0.00 | 54 | 1022.8 |
| 20260831062120 | 69 | 99 | 3.0 | 12.0 | 0.00 | 0.02 | 0.00 | 53 | 1022.9 |
| 20260831062013 | 69 | 114 | 4.0 | 12.0 | 0.00 | 0.02 | 0.00 | 51 | 1023.0 |
| 20260831061917 | 70 | 95 | 4.0 | 12.0 | 0.00 | 0.02 | 0.00 | 51 | 1022.9 |
| 20260831061825 | 70 | 95 | 5.0 | 12.0 | 0.00 | 0.02 | 0.00 | 50 | 1022.9 |
| 20260831061618 | 70 | 207 | 6.0 | 13.0 | 0.00 | 0.02 | 0.00 | 49 | 1023.0 |
| 20260831061518 | 70 | 201 | 6.0 | 15.0 | 0.00 | 0.02 | 0.00 | 47 | 1023.0 |
| 20260831061511 | 70 | 201 | 6.0 | 15.0 | 0.00 | 0.02 | 0.00 | 46 | 1023.0 |
| 20260831061422 | 70 | 150 | 6.0 | 15.0 | 0.00 | 0.02 | 0.00 | 42 | 1022.9 |
| 20260831061216 | 70 | 214 | 6.0 | 15.0 | 0.00 | 0.02 | 0.00 | 42 | 1022.9 |
| 20260831061116 | 70 | 185 | 6.0 | 15.0 | 0.00 | 0.02 | 0.00 | 42 | 1022.8 |
| 20260831061020 | 70 | 154 | 7.0 | 15.0 | 0.00 | 0.02 | 0.00 | 42 | 1022.9 |
| 20260831060821 | 69 | 175 | 7.0 | 15.0 | 0.00 | 0.02 | 0.00 | 43 | 1022.9 |
| 20260831060615 | 69 | 194 | 7.0 | 15.0 | 0.00 | 0.02 | 0.00 | 43 | 1022.9 |
| 20260831060510 | 69 | 200 | 7.0 | 14.0 | 0.00 | 0.02 | 0.00 | 44 | 1022.9 |
| 20260831060421 | 69 | 198 | 7.0 | 14.0 | 0.00 | 0.02 | 0.00 | 44 | 1022.9 |
| 20260831060214 | 69 | 175 | 7.0 | 14.0 | 0.00 | 0.02 | 0.00 | 43 | 1022.9 |
| 20260831060123 | 69 | 206 | 7.0 | 14.0 | 0.00 | 0.02 | 0.00 | 43 | 1022.9 |
| 20260831060116 | 69 | 183 | 6.0 | 13.0 | 0.00 | 0.02 | 0.00 | 44 | 1022.8 |
| 20260831055910 | 69 | 152 | 6.0 | 11.0 | 0.00 | 0.02 | 0.02 | 45 | 1022.9 |
| 20260831055810 | 69 | 185 | 6.0 | 10.0 | 0.00 | 0.02 | 0.02 | 44 | 1022.9 |
| 20260831055708 | 69 | 163 | 6.0 | 10.0 | 0.00 | 0.02 | 0.02 | 44 | 1022.9 |
| 20260831055607 | 69 | 169 | 6.0 | 11.0 | 0.00 | 0.02 | 0.02 | 45 | 1022.9 |
| 20260831055509 | 69 | 155 | 6.0 | 11.0 | 0.00 | 0.02 | 0.02 | 46 | 1023.0 |
| 20260831055504 | 69 | 158 | 6.0 | 11.0 | 0.00 | 0.02 | 0.02 | 46 | 1023.0 |
| 20260831055403 | 69 | 180 | 5.0 | 11.0 | 0.00 | 0.02 | 0.02 | 45 | 1022.9 |
| 20260831055305 | 69 | 199 | 5.0 | 11.0 | 0.00 | 0.02 | 0.02 | 46 | 1023.0 |
| 20260831055202 | 69 | 184 | 4.0 | 11.0 | 0.00 | 0.02 | 0.02 | 45 | 1022.9 |
| 20260831055059 | 69 | 158 | 4.0 | 11.0 | 0.00 | 0.02 | 0.02 | 46 | 1022.9 |
| 20260831055007 | 69 | 160 | 3.0 | 11.0 | 0.00 | 0.02 | 0.02 | 46 | 1022.9 |
| 20260831054956 | 69 | 170 | 3.0 | 11.0 | 0.00 | 0.02 | 0.02 | 46 | 1022.9 |
| 20260831054856 | 69 | 161 | 3.0 | 11.0 | 0.00 | 0.02 | 0.02 | 46 | 1022.9 |
| 20260831054803 | 69 | 150 | 2.0 | 11.0 | 0.00 | 0.02 | 0.02 | 46 | 1022.9 |
| 20260831054614 | 69 | 127 | 1.0 | 7.0 | 0.00 | 0.02 | 0.02 | 47 | 1023.0 |
| 20260831054452 | 69 | 298 | 2.0 | 7.0 | 0.00 | 0.02 | 0.02 | 48 | 1022.9 |
| 20260831054351 | 69 | 298 | 2.0 | 7.0 | 0.00 | 0.02 | 0.02 | 47 | 1022.9 |
| 20260831054251 | 69 | 298 | 2.0 | 7.0 | 0.00 | 0.02 | 0.02 | 47 | 1023.0 |
| 20260831054147 | 69 | 298 | 3.0 | 7.0 | 0.00 | 0.02 | 0.02 | 47 | 1023.0 |
| 20260831054045 | 69 | 298 | 4.0 | 8.0 | 0.00 | 0.02 | 0.02 | 47 | 1023.0 |
| 20260831054008 | 70 | 298 | 4.0 | 10.0 | 0.00 | 0.02 | 0.02 | 47 | 1023.0 |
| 20260831053939 | 70 | 298 | 4.0 | 10.0 | 0.00 | 0.02 | 0.02 | 47 | 1023.1 |
| 20260831053847 | 70 | 298 | 5.0 | 10.0 | 0.00 | 0.02 | 0.02 | 47 | 1023.1 |
| 20260831053637 | 70 | 292 | 5.0 | 10.0 | 0.00 | 0.02 | 0.02 | 46 | 1023.2 |
| 20260831053547 | 70 | 263 | 6.0 | 11.0 | 0.00 | 0.02 | 0.02 | 47 | 1023.2 |
| 20260831053540 | 70 | 294 | 6.0 | 11.0 | 0.00 | 0.02 | 0.02 | 47 | 1023.2 |
| 20260831053336 | 70 | 288 | 7.0 | 11.0 | 0.00 | 0.02 | 0.02 | 46 | 1023.4 |
| 20260831053235 | 70 | 261 | 7.0 | 12.0 | 0.00 | 0.02 | 0.02 | 46 | 1023.4 |
| 20260831053136 | 70 | 269 | 7.0 | 12.0 | 0.00 | 0.02 | 0.02 | 46 | 1023.4 |
| 20260831053036 | 70 | 271 | 7.0 | 12.0 | 0.00 | 0.02 | 0.02 | 45 | 1023.4 |
| 20260831053005 | 70 | 298 | 7.0 | 12.0 | 0.00 | 0.02 | 0.02 | 45 | 1023.4 |
| 20260831052936 | 70 | 272 | 7.0 | 12.0 | 0.00 | 0.02 | 0.02 | 45 | 1023.4 |
| 20260831052836 | 70 | 252 | 7.0 | 12.0 | 0.00 | 0.02 | 0.02 | 45 | 1023.2 |
| 20260831052734 | 70 | 288 | 7.0 | 14.0 | 0.00 | 0.02 | 0.02 | 45 | 1023.1 |
| 20260831052634 | 70 | 239 | 7.0 | 14.0 | 0.00 | 0.02 | 0.02 | 45 | 1023.2 |
| 20260831052535 | 70 | 265 | 7.0 | 14.0 | 0.00 | 0.02 | 0.02 | 45 | 1023.1 |
| 20260831052501 | 70 | 265 | 7.0 | 14.0 | 0.00 | 0.02 | 0.02 | 45 | 1023.1 |
| 20260831052434 | 70 | 267 | 7.0 | 14.0 | 0.00 | 0.02 | 0.02 | 45 | 1023.1 |
| 20260831052333 | 70 | 251 | 7.0 | 14.0 | 0.00 | 0.02 | 0.02 | 45 | 1023.2 |
| 20260831052235 | 70 | 259 | 7.0 | 14.0 | 0.00 | 0.02 | 0.02 | 45 | 1023.1 |
| 20260831052134 | 70 | 266 | 7.0 | 14.0 | 0.00 | 0.02 | 0.02 | 45 | 1023.1 |
| 20260831052033 | 70 | 266 | 7.0 | 14.0 | 0.00 | 0.02 | 0.02 | 45 | 1023.1 |
| 20260831052000 | 70 | 313 | 7.0 | 17.0 | 0.00 | 0.02 | 0.02 | 45 | 1023.1 |
| 20260831051934 | 70 | 312 | 7.0 | 17.0 | 0.00 | 0.02 | 0.02 | 45 | 1023.1 |
| 20260831051833 | 71 | 263 | 7.0 | 17.0 | 0.00 | 0.02 | 0.02 | 45 | 1023.1 |
| 20260831051728 | 71 | 254 | 8.0 | 17.0 | 0.00 | 0.02 | 0.02 | 45 | 1023.1 |
| 20260831051635 | 70 | 321 | 8.0 | 17.0 | 0.00 | 0.02 | 0.02 | 45 | 1023.1 |
| 20260831051459 | 71 | 198 | 9.0 | 17.0 | 0.00 | 0.02 | 0.02 | 44 | 1023.0 |
| 20260831051428 | 71 | 269 | 9.0 | 17.0 | 0.00 | 0.02 | 0.02 | 45 | 1023.1 |
| 20260831051327 | 70 | 213 | 9.0 | 17.0 | 0.00 | 0.02 | 0.02 | 45 | 1023.2 |
| 20260831051222 | 70 | 259 | 9.0 | 17.0 | 0.00 | 0.02 | 0.02 | 45 | 1023.2 |
| 20260831051122 | 70 | 284 | 9.0 | 17.0 | 0.00 | 0.02 | 0.02 | 45 | 1023.4 |
| 20260831051020 | 70 | 267 | 9.0 | 17.0 | 0.00 | 0.02 | 0.02 | 45 | 1023.5 |
| 20260831050959 | 70 | 286 | 9.0 | 18.0 | 0.00 | 0.02 | 0.02 | 45 | 1023.5 |
| 20260831050920 | 70 | 266 | 9.0 | 18.0 | 0.00 | 0.02 | 0.02 | 45 | 1023.5 |
| 20260831050819 | 70 | 262 | 10.0 | 18.0 | 0.00 | 0.02 | 0.02 | 45 | 1023.4 |
| 20260831050715 | 70 | 222 | 9.0 | 18.0 | 0.00 | 0.02 | 0.02 | 45 | 1023.5 |
| 20260831050614 | 70 | 247 | 9.0 | 18.0 | 0.00 | 0.02 | 0.02 | 46 | 1023.6 |
| 20260831050600 | 70 | 232 | 8.0 | 18.0 | 0.00 | 0.02 | 0.02 | 46 | 1023.6 |
| 20260831050414 | 69 | 274 | 8.0 | 18.0 | 0.00 | 0.02 | 0.02 | 46 | 1023.6 |
| 20260831050317 | 69 | 281 | 7.0 | 18.0 | 0.00 | 0.02 | 0.02 | 47 | 1023.7 |
| 20260831050110 | 69 | 240 | 7.0 | 18.0 | 0.00 | 0.02 | 0.02 | 48 | 1023.8 |
| 20260831050020 | 68 | 254 | 6.0 | 13.0 | 0.00 | 0.02 | 0.02 | 49 | 1023.8 |
| 20260831050013 | 68 | 263 | 6.0 | 13.0 | 0.00 | 0.02 | 0.02 | 49 | 1023.8 |
| 20260831045808 | 68 | 250 | 5.0 | 12.0 | 0.00 | 0.02 | 0.02 | 51 | 1023.8 |
| 20260831045705 | 68 | 209 | 5.0 | 10.0 | 0.00 | 0.02 | 0.02 | 52 | 1023.8 |
| 20260831045604 | 68 | 248 | 5.0 | 10.0 | 0.00 | 0.02 | 0.02 | 53 | 1023.8 |
| 20260831045503 | 68 | 232 | 5.0 | 10.0 | 0.00 | 0.02 | 0.02 | 53 | 1023.8 |
| 20260831045441 | 68 | 232 | 5.0 | 10.0 | 0.00 | 0.02 | 0.02 | 53 | 1023.8 |
| 20260831045407 | 68 | 248 | 5.0 | 10.0 | 0.00 | 0.02 | 0.02 | 54 | 1023.8 |
| 20260831045158 | 68 | 223 | 5.0 | 10.0 | 0.00 | 0.02 | 0.02 | 55 | 1023.9 |
| 20260831045058 | 68 | 227 | 4.0 | 9.0 | 0.00 | 0.02 | 0.02 | 56 | 1023.9 |
| 20260831044958 | 67 | 265 | 4.0 | 8.0 | 0.00 | 0.02 | 0.02 | 57 | 1023.9 |
| 20260831044934 | 67 | 255 | 4.0 | 8.0 | 0.00 | 0.02 | 0.02 | 57 | 1023.8 |
| 20260831044858 | 67 | 260 | 4.0 | 8.0 | 0.00 | 0.02 | 0.02 | 57 | 1023.8 |
| 20260831044758 | 67 | 271 | 4.0 | 8.0 | 0.00 | 0.02 | 0.02 | 58 | 1023.9 |
| 20260831044551 | 67 | 277 | 4.0 | 9.0 | 0.00 | 0.02 | 0.02 | 60 | 1023.9 |
| 20260831044450 | 67 | 259 | 5.0 | 10.0 | 0.00 | 0.02 | 0.02 | 60 | 1023.8 |
| 20260831044428 | 67 | 259 | 5.0 | 10.0 | 0.00 | 0.02 | 0.02 | 61 | 1023.9 |
| 20260831044349 | 67 | 261 | 5.0 | 10.0 | 0.00 | 0.02 | 0.02 | 61 | 1023.9 |
| 20260831044250 | 67 | 289 | 4.0 | 10.0 | 0.00 | 0.02 | 0.02 | 62 | 1023.9 |
| 20260831044146 | 67 | 279 | 4.0 | 10.0 | 0.00 | 0.02 | 0.02 | 62 | 1023.8 |
| 20260831044051 | 67 | 277 | 4.0 | 10.0 | 0.00 | 0.02 | 0.02 | 62 | 1023.8 |
| 20260831043922 | 66 | 288 | 4.0 | 10.0 | 0.00 | 0.02 | 0.02 | 63 | 1023.8 |
| 20260831043843 | 66 | 322 | 4.0 | 10.0 | 0.00 | 0.02 | 0.02 | 63 | 1023.8 |
| 20260831043743 | 66 | 336 | 3.0 | 10.0 | 0.00 | 0.02 | 0.02 | 64 | 1023.9 |
| 20260831043638 | 66 | 280 | 3.0 | 10.0 | 0.00 | 0.02 | 0.02 | 64 | 1023.8 |
| 20260831043538 | 66 | 307 | 2.0 | 10.0 | 0.00 | 0.02 | 0.02 | 65 | 1023.8 |
| 20260831043438 | 66 | 313 | 2.0 | 6.0 | 0.00 | 0.02 | 0.02 | 65 | 1023.9 |
| 20260831043416 | 66 | 308 | 2.0 | 6.0 | 0.00 | 0.02 | 0.02 | 64 | 1023.9 |
| 20260831043344 | 66 | 355 | 2.0 | 6.0 | 0.00 | 0.02 | 0.02 | 64 | 1023.9 |
| 20260831043133 | 65 | 329 | 2.0 | 6.0 | 0.00 | 0.02 | 0.02 | 63 | 1023.8 |
| 20260831043032 | 65 | 355 | 2.0 | 4.0 | 0.00 | 0.02 | 0.02 | 63 | 1023.8 |
| 20260831042936 | 65 | 16 | 2.0 | 4.0 | 0.00 | 0.02 | 0.02 | 63 | 1023.7 |
| 20260831042734 | 65 | 338 | 2.0 | 4.0 | 0.00 | 0.02 | 0.02 | 63 | 1023.6 |
| 20260831042526 | 65 | 275 | 2.0 | 4.0 | 0.00 | 0.02 | 0.02 | 63 | 1023.6 |
| 20260831042405 | 65 | 234 | 2.0 | 6.0 | 0.00 | 0.02 | 0.02 | 63 | 1023.6 |
| 20260831042326 | 65 | 234 | 2.0 | 6.0 | 0.00 | 0.02 | 0.02 | 63 | 1023.5 |
| 20260831042233 | 65 | 234 | 2.0 | 7.0 | 0.00 | 0.02 | 0.02 | 64 | 1023.5 |
| 20260831042024 | 65 | 244 | 3.0 | 7.0 | 0.00 | 0.02 | 0.02 | 63 | 1023.4 |
| 20260831041922 | 65 | 264 | 3.0 | 7.0 | 0.00 | 0.02 | 0.02 | 63 | 1023.5 |
| 20260831041858 | 65 | 223 | 3.0 | 7.0 | 0.00 | 0.02 | 0.02 | 63 | 1023.5 |
| 20260831041838 | 65 | 223 | 3.0 | 7.0 | 0.00 | 0.02 | 0.02 | 63 | 1023.4 |
| 20260831041418 | 65 | 238 | 3.0 | 7.0 | 0.00 | 0.02 | 0.02 | 63 | 1023.4 |
| 20260831041352 | 65 | 231 | 3.0 | 7.0 | 0.00 | 0.02 | 0.02 | 63 | 1023.4 |
| 20260831041316 | 65 | 239 | 4.0 | 7.0 | 0.00 | 0.02 | 0.02 | 63 | 1023.4 |
| 20260831041213 | 65 | 221 | 3.0 | 7.0 | 0.00 | 0.02 | 0.02 | 64 | 1023.2 |
| 20260831041111 | 65 | 240 | 3.0 | 7.0 | 0.00 | 0.02 | 0.02 | 65 | 1023.2 |
| 20260831041011 | 65 | 209 | 3.0 | 7.0 | 0.00 | 0.02 | 0.02 | 65 | 1023.2 |
| 20260831040910 | 65 | 235 | 3.0 | 7.0 | 0.00 | 0.02 | 0.02 | 66 | 1023.2 |
| 20260831040846 | 65 | 244 | 3.0 | 7.0 | 0.00 | 0.02 | 0.02 | 66 | 1023.2 |
| 20260831040810 | 64 | 235 | 3.0 | 7.0 | 0.00 | 0.02 | 0.02 | 66 | 1023.2 |
| 20260831040707 | 64 | 242 | 3.0 | 7.0 | 0.00 | 0.02 | 0.02 | 66 | 1023.2 |
| 20260831040602 | 64 | 251 | 3.0 | 7.0 | 0.00 | 0.02 | 0.02 | 68 | 1023.2 |
| 20260831040502 | 64 | 243 | 2.0 | 7.0 | 0.00 | 0.02 | 0.02 | 68 | 1023.2 |
| 20260831040401 | 64 | 243 | 2.0 | 7.0 | 0.00 | 0.02 | 0.02 | 69 | 1023.1 |
| 20260831040341 | 64 | 220 | 2.0 | 7.0 | 0.00 | 0.02 | 0.02 | 69 | 1023.1 |
| 20260831040301 | 64 | 250 | 2.0 | 5.0 | 0.00 | 0.02 | 0.02 | 69 | 1023.1 |
| 20260831040201 | 64 | 219 | 2.0 | 5.0 | 0.00 | 0.02 | 0.02 | 69 | 1023.1 |
| 20260831040100 | 64 | 234 | 1.0 | 4.0 | 0.00 | 0.02 | 0.02 | 69 | 1023.1 |
| 20260831040000 | 64 | 253 | 1.0 | 4.0 | 0.00 | 0.02 | 0.02 | 69 | 1023.1 |
| 20260831035834 | 64 | 253 | 1.0 | 4.0 | 0.00 | 0.02 | 0.02 | 70 | 1023.1 |
| 20260831035802 | 64 | 253 | 1.0 | 4.0 | 0.00 | 0.02 | 0.02 | 70 | 1023.1 |
| 20260831035551 | 64 | 211 | 1.0 | 4.0 | 0.00 | 0.02 | 0.02 | 70 | 1023.0 |
| 20260831035449 | 64 | 211 | 1.0 | 4.0 | 0.00 | 0.02 | 0.02 | 70 | 1023.1 |
| 20260831035350 | 63 | 211 | 1.0 | 4.0 | 0.00 | 0.02 | 0.02 | 71 | 1023.1 |
| 20260831035328 | 63 | 211 | 1.0 | 4.0 | 0.00 | 0.02 | 0.02 | 71 | 1023.0 |
| 20260831035256 | 63 | 211 | 1.0 | 4.0 | 0.00 | 0.02 | 0.02 | 71 | 1023.0 |
| 20260831035046 | 63 | 211 | 1.0 | 4.0 | 0.00 | 0.02 | 0.02 | 71 | 1023.0 |
| 20260831034953 | 63 | 211 | 1.0 | 4.0 | 0.00 | 0.02 | 0.02 | 71 | 1023.0 |
| 20260831034823 | 64 | 211 | 1.0 | 4.0 | 0.00 | 0.02 | 0.02 | 71 | 1023.0 |
| 20260831034746 | 64 | 211 | 1.0 | 3.0 | 0.00 | 0.02 | 0.02 | 71 | 1023.0 |
| 20260831034643 | 64 | 211 | 1.0 | 3.0 | 0.00 | 0.02 | 0.02 | 71 | 1023.0 |
| 20260831034538 | 64 | 211 | 1.0 | 3.0 | 0.00 | 0.02 | 0.02 | 71 | 1023.0 |
| 20260831034438 | 64 | 211 | 1.0 | 3.0 | 0.00 | 0.02 | 0.02 | 71 | 1023.0 |
| 20260831034317 | 64 | 211 | 1.0 | 3.0 | 0.00 | 0.02 | 0.02 | 71 | 1022.9 |
| 20260831034238 | 64 | 211 | 1.0 | 3.0 | 0.00 | 0.02 | 0.02 | 71 | 1022.9 |
| 20260831034150 | 64 | 211 | 1.0 | 3.0 | 0.00 | 0.02 | 0.02 | 71 | 1022.9 |
| 20260831033811 | 64 | 211 | 1.0 | 4.0 | 0.00 | 0.02 | 0.02 | 71 | 1022.9 |
| 20260831033733 | 64 | 194 | 1.0 | 4.0 | 0.00 | 0.02 | 0.02 | 72 | 1023.0 |
| 20260831033632 | 64 | 200 | 1.0 | 4.0 | 0.00 | 0.02 | 0.02 | 72 | 1022.9 |
| 20260831033530 | 64 | 207 | 1.0 | 4.0 | 0.00 | 0.02 | 0.02 | 72 | 1023.0 |
| 20260831033430 | 64 | 207 | 1.0 | 4.0 | 0.00 | 0.02 | 0.02 | 72 | 1023.0 |
| 20260831033305 | 64 | 179 | 1.0 | 4.0 | 0.00 | 0.02 | 0.02 | 72 | 1023.0 |
| 20260831033227 | 64 | 179 | 1.0 | 4.0 | 0.00 | 0.02 | 0.02 | 72 | 1023.0 |
| 20260831033125 | 64 | 179 | 1.0 | 4.0 | 0.00 | 0.02 | 0.02 | 72 | 1023.1 |
| 20260831033020 | 64 | 179 | 1.0 | 4.0 | 0.00 | 0.02 | 0.02 | 72 | 1023.1 |
| 20260831032919 | 64 | 179 | 1.0 | 4.0 | 0.00 | 0.02 | 0.02 | 72 | 1023.1 |
| 20260831032820 | 64 | 179 | 1.0 | 4.0 | 0.00 | 0.02 | 0.02 | 72 | 1023.1 |
| 20260831032758 | 64 | 179 | 1.0 | 4.0 | 0.00 | 0.02 | 0.02 | 72 | 1023.1 |
| 20260831032720 | 64 | 254 | 0.0 | 3.0 | 0.00 | 0.02 | 0.02 | 72 | 1023.1 |
| 20260831032619 | 64 | 254 | 0.0 | 3.0 | 0.00 | 0.02 | 0.02 | 72 | 1023.0 |
| 20260831032520 | 64 | 254 | 0.0 | 1.0 | 0.00 | 0.02 | 0.02 | 72 | 1023.0 |
| 20260831032418 | 64 | 254 | 0.0 | 2.0 | 0.00 | 0.02 | 0.02 | 73 | 1023.0 |
| 20260831032359 | 64 | 254 | 0.0 | 2.0 | 0.00 | 0.02 | 0.02 | 73 | 1023.0 |
| 20260831032216 | 64 | 254 | 1.0 | 4.0 | 0.00 | 0.02 | 0.02 | 73 | 1022.9 |
| 20260831032121 | 64 | 254 | 1.0 | 4.0 | 0.00 | 0.02 | 0.02 | 73 | 1022.9 |
| 20260831031912 | 64 | 254 | 2.0 | 7.0 | 0.00 | 0.02 | 0.02 | 73 | 1022.9 |
| 20260831031812 | 64 | 254 | 2.0 | 7.0 | 0.00 | 0.02 | 0.02 | 73 | 1022.9 |
| 20260831031746 | 63 | 254 | 2.0 | 7.0 | 0.00 | 0.02 | 0.02 | 73 | 1022.9 |
| 20260831031709 | 64 | 254 | 2.0 | 7.0 | 0.00 | 0.02 | 0.02 | 74 | 1022.9 |
| 20260831031611 | 63 | 254 | 2.0 | 7.0 | 0.00 | 0.02 | 0.02 | 74 | 1023.0 |
| 20260831031403 | 63 | 254 | 3.0 | 7.0 | 0.00 | 0.02 | 0.02 | 74 | 1022.9 |
| 20260831031320 | 63 | 254 | 2.0 | 7.0 | 0.00 | 0.02 | 0.02 | 74 | 1022.9 |
| 20260831031312 | 63 | 254 | 2.0 | 7.0 | 0.00 | 0.02 | 0.02 | 74 | 1022.9 |
| 20260831031007 | 63 | 251 | 2.0 | 5.0 | 0.00 | 0.02 | 0.02 | 74 | 1022.9 |
| 20260831030800 | 63 | 240 | 1.0 | 4.0 | 0.00 | 0.02 | 0.02 | 74 | 1022.8 |
| 20260831030735 | 63 | 240 | 1.0 | 3.0 | 0.00 | 0.02 | 0.02 | 74 | 1022.6 |
| 20260831030658 | 63 | 240 | 1.0 | 3.0 | 0.00 | 0.02 | 0.02 | 74 | 1022.6 |
| 20260831030559 | 63 | 240 | 1.0 | 3.0 | 0.00 | 0.02 | 0.02 | 74 | 1022.8 |
| 20260831030442 | 63 | 240 | 0.0 | 4.0 | 0.00 | 0.02 | 0.02 | 74 | 1022.6 |
| 20260831030151 | 63 | 240 | 1.0 | 7.0 | 0.00 | 0.02 | 0.02 | 73 | 1022.6 |
| 20260831030049 | 63 | 240 | 1.0 | 7.0 | 0.00 | 0.02 | 0.02 | 73 | 1022.6 |
| 20260831025948 | 63 | 240 | 2.0 | 7.0 | 0.00 | 0.02 | 0.02 | 73 | 1022.6 |
| 20260831025848 | 63 | 240 | 2.0 | 8.0 | 0.00 | 0.02 | 0.02 | 73 | 1022.6 |
| 20260831025748 | 63 | 240 | 2.0 | 8.0 | 0.00 | 0.02 | 0.02 | 73 | 1022.6 |
| 20260831025723 | 63 | 240 | 3.0 | 8.0 | 0.00 | 0.02 | 0.02 | 73 | 1022.6 |
| 20260831025646 | 63 | 240 | 3.0 | 8.0 | 0.00 | 0.02 | 0.02 | 74 | 1022.6 |
| 20260831025544 | 63 | 240 | 3.0 | 8.0 | 0.00 | 0.02 | 0.02 | 74 | 1022.8 |
| 20260831025439 | 63 | 240 | 3.0 | 8.0 | 0.00 | 0.02 | 0.02 | 74 | 1022.8 |
| 20260831025337 | 63 | 224 | 2.0 | 8.0 | 0.00 | 0.02 | 0.02 | 74 | 1022.8 |
| 20260831025238 | 63 | 242 | 2.0 | 8.0 | 0.00 | 0.02 | 0.02 | 74 | 1022.8 |
| 20260831025217 | 63 | 244 | 2.0 | 8.0 | 0.00 | 0.02 | 0.02 | 74 | 1022.8 |
| 20260831025138 | 63 | 252 | 2.0 | 8.0 | 0.00 | 0.02 | 0.02 | 74 | 1022.9 |
| 20260831025037 | 63 | 217 | 1.0 | 8.0 | 0.00 | 0.02 | 0.02 | 74 | 1022.9 |
| 20260831024936 | 63 | 244 | 1.0 | 8.0 | 0.00 | 0.02 | 0.02 | 74 | 1022.9 |
| 20260831024837 | 63 | 242 | 1.0 | 5.0 | 0.00 | 0.02 | 0.02 | 74 | 1022.8 |
| 20260831024734 | 63 | 242 | 1.0 | 3.0 | 0.00 | 0.02 | 0.02 | 74 | 1022.8 |
| 20260831024710 | 63 | 229 | 1.0 | 3.0 | 0.00 | 0.02 | 0.02 | 74 | 1022.8 |
| 20260831024633 | 63 | 229 | 1.0 | 2.0 | 0.00 | 0.02 | 0.02 | 73 | 1022.8 |
| 20260831024532 | 63 | 229 | 1.0 | 3.0 | 0.00 | 0.02 | 0.02 | 73 | 1022.8 |
| 20260831024438 | 63 | 229 | 1.0 | 3.0 | 0.00 | 0.02 | 0.02 | 73 | 1022.8 |
| 20260831024205 | 63 | 238 | 1.0 | 3.0 | 0.00 | 0.02 | 0.02 | 73 | 1022.8 |
| 20260831024127 | 63 | 238 | 1.0 | 3.0 | 0.00 | 0.02 | 0.02 | 73 | 1022.8 |
| 20260831024026 | 63 | 238 | 1.0 | 4.0 | 0.00 | 0.02 | 0.02 | 73 | 1022.8 |
| 20260831023926 | 63 | 238 | 1.0 | 4.0 | 0.00 | 0.02 | 0.02 | 73 | 1022.6 |
| 20260831023830 | 63 | 238 | 1.0 | 4.0 | 0.00 | 0.02 | 0.02 | 73 | 1022.6 |
| 20260831023659 | 63 | 238 | 1.0 | 4.0 | 0.00 | 0.02 | 0.02 | 73 | 1022.6 |
| 20260831023626 | 63 | 238 | 1.0 | 4.0 | 0.00 | 0.02 | 0.02 | 73 | 1022.6 |
| 20260831023419 | 63 | 238 | 1.0 | 4.0 | 0.00 | 0.02 | 0.02 | 73 | 1022.6 |
| 20260831023317 | 63 | 238 | 1.0 | 4.0 | 0.00 | 0.02 | 0.02 | 73 | 1022.6 |
| 20260831023231 | 63 | 238 | 0.0 | 4.0 | 0.00 | 0.02 | 0.02 | 73 | 1022.5 |
| 20260831023224 | 63 | 238 | 0.0 | 4.0 | 0.00 | 0.02 | 0.02 | 73 | 1022.5 |
| 20260831022907 | 63 | 133 | 0.0 | 0.0 | 0.00 | 0.02 | 0.02 | 72 | 1022.6 |
| 20260831022809 | 64 | 133 | 0.0 | 0.0 | 0.00 | 0.02 | 0.02 | 72 | 1022.5 |
| 20260831022708 | 64 | 133 | 0.0 | 0.0 | 0.00 | 0.02 | 0.02 | 72 | 1022.5 |
| 20260831022646 | 64 | 133 | 0.0 | 0.0 | 0.00 | 0.02 | 0.02 | 72 | 1022.5 |
| 20260831022608 | 64 | 133 | 0.0 | 0.0 | 0.00 | 0.02 | 0.02 | 72 | 1022.5 |
| 20260831022507 | 64 | 133 | 0.0 | 0.0 | 0.00 | 0.02 | 0.02 | 72 | 1022.5 |
| 20260831022407 | 64 | 133 | 0.0 | 0.0 | 0.00 | 0.02 | 0.02 | 72 | 1022.4 |
| 20260831022322 | 64 | 133 | 0.0 | 0.0 | 0.00 | 0.02 | 0.02 | 72 | 1022.4 |
| 20260831022208 | 64 | 133 | 0.0 | 0.0 | 0.00 | 0.02 | 0.02 | 72 | 1022.4 |
| 20260831022002 | 64 | 133 | 0.0 | 0.0 | 0.00 | 0.02 | 0.02 | 72 | 1022.4 |
| 20260831021902 | 64 | 133 | 0.0 | 0.0 | 0.00 | 0.02 | 0.02 | 72 | 1022.4 |
| 20260831021848 | 64 | 133 | 0.0 | 0.0 | 0.00 | 0.02 | 0.02 | 72 | 1022.4 |
| 20260831021558 | 64 | 133 | 0.0 | 0.0 | 0.00 | 0.02 | 0.02 | 71 | 1022.4 |
| 20260831021455 | 64 | 133 | 0.0 | 0.0 | 0.00 | 0.02 | 0.02 | 71 | 1022.5 |
| 20260831021355 | 64 | 133 | 0.0 | 0.0 | 0.00 | 0.02 | 0.02 | 71 | 1022.5 |
| 20260831021301 | 64 | 133 | 0.0 | 0.0 | 0.00 | 0.02 | 0.02 | 71 | 1022.4 |
| 20260831021129 | 64 | 133 | 0.0 | 0.0 | 0.00 | 0.02 | 0.02 | 71 | 1022.4 |
| 20260831021051 | 64 | 133 | 0.0 | 0.0 | 0.00 | 0.02 | 0.02 | 71 | 1022.4 |
| 20260831020949 | 64 | 133 | 0.0 | 0.0 | 0.00 | 0.02 | 0.02 | 70 | 1022.3 |
| 20260831020845 | 64 | 133 | 0.0 | 0.0 | 0.00 | 0.02 | 0.02 | 70 | 1022.3 |
| 20260831020744 | 64 | 133 | 0.0 | 0.0 | 0.00 | 0.02 | 0.02 | 70 | 1022.3 |
| 20260831020644 | 64 | 133 | 0.0 | 0.0 | 0.00 | 0.02 | 0.02 | 70 | 1022.3 |
| 20260831020623 | 65 | 133 | 0.0 | 0.0 | 0.00 | 0.02 | 0.02 | 70 | 1022.2 |
| 20260831020544 | 65 | 133 | 0.0 | 0.0 | 0.00 | 0.02 | 0.02 | 70 | 1022.2 |
| 20260831020444 | 65 | 133 | 0.0 | 0.0 | 0.00 | 0.02 | 0.02 | 69 | 1022.3 |
| 20260831020337 | 65 | 133 | 0.0 | 0.0 | 0.00 | 0.02 | 0.02 | 69 | 1022.2 |
| 20260831020237 | 65 | 133 | 0.0 | 0.0 | 0.00 | 0.02 | 0.02 | 69 | 1022.2 |
| 20260831020117 | 65 | 133 | 0.0 | 0.0 | 0.00 | 0.02 | 0.02 | 69 | 1022.3 |
| 20260831020038 | 65 | 133 | 0.0 | 0.0 | 0.00 | 0.02 | 0.02 | 70 | 1022.2 |
| 20260831015937 | 65 | 133 | 0.0 | 0.0 | 0.00 | 0.02 | 0.02 | 69 | 1022.2 |
| 20260831015844 | 65 | 133 | 0.0 | 0.0 | 0.00 | 0.02 | 0.02 | 69 | 1022.3 |
| 20260831015610 | 65 | 133 | 0.0 | 0.0 | 0.00 | 0.02 | 0.02 | 69 | 1022.2 |
| 20260831015550 | 65 | 133 | 0.0 | 0.0 | 0.00 | 0.02 | 0.02 | 69 | 1022.2 |
| 20260831015234 | 65 | 133 | 0.0 | 0.0 | 0.00 | 0.02 | 0.02 | 68 | 1022.2 |
| 20260831015133 | 65 | 133 | 0.0 | 0.0 | 0.00 | 0.02 | 0.02 | 68 | 1022.2 |
| 20260831015105 | 65 | 133 | 0.0 | 1.0 | 0.00 | 0.02 | 0.02 | 67 | 1022.2 |
| 20260831015031 | 65 | 133 | 0.0 | 1.0 | 0.00 | 0.02 | 0.02 | 67 | 1022.3 |
| 20260831014932 | 65 | 133 | 0.0 | 1.0 | 0.00 | 0.02 | 0.02 | 67 | 1022.2 |
| 20260831014829 | 65 | 133 | 0.0 | 1.0 | 0.00 | 0.02 | 0.02 | 66 | 1022.3 |
| 20260831014727 | 66 | 133 | 0.0 | 2.0 | 0.00 | 0.02 | 0.02 | 66 | 1022.2 |
| 20260831014636 | 66 | 133 | 1.0 | 3.0 | 0.00 | 0.02 | 0.02 | 66 | 1022.3 |
| 20260831014630 | 66 | 133 | 1.0 | 3.0 | 0.00 | 0.02 | 0.02 | 66 | 1022.3 |
| 20260831014426 | 66 | 133 | 1.0 | 3.0 | 0.00 | 0.02 | 0.02 | 66 | 1022.2 |
| 20260831014324 | 66 | 133 | 1.0 | 3.0 | 0.00 | 0.02 | 0.02 | 66 | 1022.2 |
| 20260831014222 | 66 | 133 | 1.0 | 3.0 | 0.00 | 0.02 | 0.02 | 65 | 1022.3 |
| 20260831014119 | 66 | 133 | 1.0 | 3.0 | 0.00 | 0.02 | 0.02 | 65 | 1022.2 |
| 20260831014025 | 66 | 133 | 1.0 | 3.0 | 0.00 | 0.02 | 0.02 | 65 | 1022.2 |
| 20260831013817 | 66 | 133 | 1.0 | 3.0 | 0.00 | 0.02 | 0.02 | 64 | 1022.2 |
| 20260831013715 | 67 | 133 | 1.0 | 3.0 | 0.00 | 0.02 | 0.02 | 64 | 1022.2 |
| 20260831013616 | 67 | 133 | 1.0 | 3.0 | 0.00 | 0.02 | 0.02 | 64 | 1022.3 |
| 20260831013547 | 67 | 133 | 1.0 | 3.0 | 0.00 | 0.02 | 0.02 | 64 | 1022.3 |
| 20260831013527 | 67 | 133 | 1.0 | 3.0 | 0.00 | 0.02 | 0.02 | 64 | 1022.2 |
| 20260831013215 | 67 | 133 | 1.0 | 3.0 | 0.00 | 0.02 | 0.02 | 63 | 1022.0 |
| 20260831013114 | 67 | 133 | 1.0 | 3.0 | 0.00 | 0.02 | 0.02 | 63 | 1022.0 |
| 20260831013020 | 67 | 133 | 1.0 | 3.0 | 0.00 | 0.02 | 0.02 | 63 | 1022.2 |
| 20260831012809 | 67 | 133 | 1.0 | 3.0 | 0.00 | 0.02 | 0.02 | 62 | 1022.2 |
| 20260831012708 | 67 | 133 | 1.0 | 3.0 | 0.00 | 0.02 | 0.02 | 62 | 1022.2 |
| 20260831012605 | 67 | 133 | 1.0 | 3.0 | 0.00 | 0.02 | 0.02 | 62 | 1022.2 |
| 20260831012505 | 68 | 133 | 1.0 | 2.0 | 0.00 | 0.02 | 0.02 | 62 | 1022.2 |
| 20260831012405 | 68 | 133 | 1.0 | 2.0 | 0.00 | 0.02 | 0.02 | 62 | 1022.3 |
| 20260831012311 | 68 | 133 | 1.0 | 3.0 | 0.00 | 0.02 | 0.02 | 62 | 1022.3 |
| 20260831012115 | 68 | 133 | 1.0 | 3.0 | 0.00 | 0.02 | 0.02 | 62 | 1022.3 |
| 20260831012108 | 68 | 133 | 1.0 | 3.0 | 0.00 | 0.02 | 0.02 | 62 | 1022.3 |
| 20260831011901 | 68 | 133 | 1.0 | 3.0 | 0.00 | 0.02 | 0.02 | 62 | 1022.3 |
| 20260831011801 | 68 | 133 | 2.0 | 3.0 | 0.00 | 0.02 | 0.02 | 61 | 1022.3 |
| 20260831011700 | 68 | 133 | 2.0 | 3.0 | 0.00 | 0.02 | 0.02 | 61 | 1022.2 |
| 20260831011600 | 68 | 133 | 2.0 | 3.0 | 0.00 | 0.02 | 0.02 | 61 | 1022.2 |
| 20260831011527 | 68 | 133 | 1.0 | 3.0 | 0.00 | 0.02 | 0.02 | 61 | 1022.2 |
| 20260831011458 | 68 | 133 | 1.0 | 3.0 | 0.00 | 0.02 | 0.02 | 61 | 1022.2 |
| 20260831011358 | 68 | 133 | 1.0 | 3.0 | 0.00 | 0.02 | 0.02 | 61 | 1022.3 |
| 20260831011258 | 68 | 133 | 1.0 | 3.0 | 0.00 | 0.02 | 0.02 | 61 | 1022.3 |
| 20260831011157 | 69 | 133 | 1.0 | 3.0 | 0.00 | 0.02 | 0.02 | 60 | 1022.3 |
| 20260831011053 | 69 | 133 | 1.0 | 3.0 | 0.00 | 0.02 | 0.02 | 61 | 1022.3 |
| 20260831011014 | 69 | 133 | 1.0 | 3.0 | 0.00 | 0.02 | 0.02 | 61 | 1022.2 |
| 20260831010955 | 69 | 133 | 1.0 | 3.0 | 0.00 | 0.02 | 0.02 | 61 | 1022.2 |
| 20260831010853 | 69 | 133 | 1.0 | 3.0 | 0.00 | 0.02 | 0.02 | 61 | 1022.2 |
| 20260831010754 | 69 | 133 | 0.0 | 2.0 | 0.00 | 0.02 | 0.02 | 60 | 1022.3 |
| 20260831010651 | 69 | 265 | 0.0 | 2.0 | 0.00 | 0.02 | 0.02 | 60 | 1022.3 |
| 20260831010548 | 69 | 265 | 0.0 | 2.0 | 0.00 | 0.02 | 0.02 | 60 | 1022.3 |
| 20260831010506 | 69 | 265 | 1.0 | 4.0 | 0.00 | 0.02 | 0.02 | 59 | 1022.3 |
| 20260831010452 | 69 | 265 | 1.0 | 4.0 | 0.00 | 0.02 | 0.02 | 59 | 1022.3 |
| 20260831010245 | 69 | 265 | 1.0 | 4.0 | 0.00 | 0.02 | 0.02 | 59 | 1022.3 |
| 20260831010146 | 69 | 265 | 1.0 | 4.0 | 0.00 | 0.02 | 0.02 | 59 | 1022.3 |
| 20260831010045 | 69 | 169 | 1.0 | 4.0 | 0.00 | 0.02 | 0.02 | 59 | 1022.3 |
| 20260831005839 | 69 | 169 | 1.0 | 5.0 | 0.00 | 0.02 | 0.02 | 58 | 1022.3 |
| 20260831005739 | 70 | 169 | 1.0 | 5.0 | 0.00 | 0.02 | 0.02 | 57 | 1022.3 |
| 20260831005639 | 70 | 169 | 1.0 | 5.0 | 0.00 | 0.02 | 0.02 | 57 | 1022.3 |
| 20260831005602 | 70 | 169 | 2.0 | 5.0 | 0.00 | 0.02 | 0.02 | 57 | 1022.3 |
| 20260831005438 | 70 | 169 | 2.0 | 5.0 | 0.00 | 0.02 | 0.02 | 57 | 1022.3 |
| 20260831005338 | 70 | 169 | 2.0 | 6.0 | 0.00 | 0.02 | 0.02 | 57 | 1022.3 |
| 20260831005235 | 70 | 189 | 2.0 | 6.0 | 0.00 | 0.02 | 0.02 | 57 | 1022.2 |
| 20260831005133 | 70 | 189 | 2.0 | 6.0 | 0.00 | 0.02 | 0.02 | 57 | 1022.3 |
| 20260831005028 | 70 | 189 | 2.0 | 6.0 | 0.00 | 0.02 | 0.02 | 56 | 1022.3 |
| 20260831004949 | 70 | 190 | 2.0 | 6.0 | 0.00 | 0.02 | 0.02 | 56 | 1022.3 |
| 20260831004934 | 70 | 180 | 2.0 | 6.0 | 0.00 | 0.02 | 0.02 | 56 | 1022.3 |
| 20260831004727 | 70 | 154 | 2.0 | 6.0 | 0.00 | 0.02 | 0.02 | 56 | 1022.2 |
| 20260831004626 | 71 | 140 | 1.0 | 6.0 | 0.00 | 0.02 | 0.02 | 56 | 1022.2 |
| 20260831004525 | 71 | 126 | 1.0 | 6.0 | 0.00 | 0.02 | 0.02 | 56 | 1022.3 |
| 20260831004425 | 71 | 120 | 1.0 | 6.0 | 0.00 | 0.02 | 0.02 | 56 | 1022.3 |
| 20260831004325 | 71 | 155 | 1.0 | 4.0 | 0.00 | 0.02 | 0.02 | 55 | 1022.3 |
| 20260831004224 | 71 | 155 | 1.0 | 3.0 | 0.00 | 0.02 | 0.02 | 55 | 1022.3 |
| 20260831004121 | 71 | 155 | 1.0 | 3.0 | 0.00 | 0.02 | 0.02 | 55 | 1022.3 |
| 20260831004020 | 71 | 155 | 1.0 | 3.0 | 0.00 | 0.02 | 0.02 | 55 | 1022.4 |
| 20260831003920 | 71 | 155 | 0.0 | 3.0 | 0.00 | 0.02 | 0.02 | 55 | 1022.4 |
| 20260831003820 | 71 | 155 | 1.0 | 3.0 | 0.00 | 0.02 | 0.02 | 54 | 1022.5 |
| 20260831003717 | 71 | 155 | 1.0 | 3.0 | 0.00 | 0.02 | 0.02 | 54 | 1022.5 |
| 20260831003615 | 71 | 155 | 1.0 | 3.0 | 0.00 | 0.02 | 0.02 | 54 | 1022.5 |
| 20260831003514 | 71 | 155 | 1.0 | 3.0 | 0.00 | 0.02 | 0.02 | 54 | 1022.5 |
| 20260831003414 | 71 | 155 | 1.0 | 4.0 | 0.00 | 0.02 | 0.02 | 54 | 1022.5 |
| 20260831003314 | 71 | 155 | 1.0 | 5.0 | 0.00 | 0.02 | 0.02 | 53 | 1022.5 |
| 20260831003211 | 71 | 155 | 1.0 | 6.0 | 0.00 | 0.02 | 0.02 | 53 | 1022.5 |
| 20260831003109 | 71 | 155 | 2.0 | 6.0 | 0.00 | 0.02 | 0.02 | 53 | 1022.6 |
| 20260831003010 | 71 | 155 | 2.0 | 7.0 | 0.00 | 0.02 | 0.02 | 53 | 1022.5 |
| 20260831002919 | 72 | 155 | 2.0 | 7.0 | 0.00 | 0.02 | 0.02 | 53 | 1022.5 |
| 20260831002603 | 72 | 155 | 2.0 | 7.0 | 0.00 | 0.02 | 0.02 | 52 | 1022.5 |
| 20260831002457 | 72 | 127 | 2.0 | 7.0 | 0.00 | 0.02 | 0.02 | 52 | 1022.4 |
| 20260831002419 | 72 | 140 | 2.0 | 7.0 | 0.00 | 0.02 | 0.02 | 52 | 1022.5 |
| 20260831002358 | 72 | 140 | 2.0 | 7.0 | 0.00 | 0.02 | 0.02 | 52 | 1022.5 |
| 20260831002257 | 72 | 143 | 2.0 | 7.0 | 0.00 | 0.02 | 0.02 | 51 | 1022.5 |
| 20260831002204 | 72 | 167 | 1.0 | 7.0 | 0.00 | 0.02 | 0.02 | 51 | 1022.5 |
| 20260831001954 | 72 | 131 | 1.0 | 5.0 | 0.00 | 0.02 | 0.02 | 50 | 1022.4 |
| 20260831001912 | 72 | 131 | 1.0 | 5.0 | 0.00 | 0.02 | 0.02 | 50 | 1022.4 |
| 20260831001858 | 72 | 131 | 1.0 | 5.0 | 0.00 | 0.02 | 0.02 | 50 | 1022.4 |
| 20260831001652 | 72 | 165 | 1.0 | 7.0 | 0.00 | 0.02 | 0.02 | 50 | 1022.5 |
| 20260831001552 | 72 | 140 | 1.0 | 7.0 | 0.00 | 0.02 | 0.02 | 50 | 1022.5 |
| 20260831001452 | 72 | 140 | 1.0 | 7.0 | 0.00 | 0.02 | 0.02 | 50 | 1022.5 |
| 20260831001406 | 72 | 140 | 1.0 | 7.0 | 0.00 | 0.02 | 0.02 | 50 | 1022.4 |
| 20260831001349 | 72 | 140 | 1.0 | 7.0 | 0.00 | 0.02 | 0.02 | 50 | 1022.4 |
| 20260831001259 | 72 | 140 | 1.0 | 7.0 | 0.00 | 0.02 | 0.02 | 50 | 1022.4 |
| 20260831000940 | 72 | 140 | 2.0 | 8.0 | 0.00 | 0.02 | 0.02 | 50 | 1022.5 |
| 20260831000900 | 72 | 140 | 2.0 | 8.0 | 0.00 | 0.02 | 0.02 | 49 | 1022.5 |
| 20260831000839 | 72 | 140 | 2.0 | 8.0 | 0.00 | 0.02 | 0.02 | 50 | 1022.5 |
| 20260831000746 | 72 | 134 | 2.0 | 8.0 | 0.00 | 0.02 | 0.02 | 50 | 1022.5 |
| 20260831000552 | 72 | 140 | 2.0 | 8.0 | 0.00 | 0.02 | 0.02 | 50 | 1022.5 |
| 20260831000545 | 72 | 190 | 2.0 | 8.0 | 0.00 | 0.02 | 0.02 | 50 | 1022.5 |
| 20260831000233 | 72 | 113 | 3.0 | 8.0 | 0.00 | 0.02 | 0.02 | 50 | 1022.5 |
| 20260831000133 | 72 | 129 | 3.0 | 8.0 | 0.00 | 0.02 | 0.02 | 50 | 1022.5 |
| 20260831000034 | 72 | 149 | 3.0 | 8.0 | 0.00 | 0.02 | 0.02 | 50 | 1022.5 |
| 20260830235943 | 73 | 144 | 3.0 | 8.0 | 0.00 | 0.02 | 0.02 | 50 | 1022.5 |
| 20260830235936 | 73 | 92 | 3.0 | 8.0 | 0.00 | 0.02 | 0.02 | 51 | 1022.5 |
| 20260830235729 | 73 | 59 | 4.0 | 9.0 | 0.00 | 0.02 | 0.02 | 50 | 1022.6 |
| 20260830235630 | 73 | 121 | 4.0 | 9.0 | 0.00 | 0.02 | 0.02 | 50 | 1022.6 |
| 20260830235528 | 73 | 109 | 4.0 | 9.0 | 0.00 | 0.02 | 0.02 | 49 | 1022.6 |
| 20260830235423 | 73 | 116 | 4.0 | 9.0 | 0.00 | 0.02 | 0.02 | 49 | 1022.5 |
| 20260830235342 | 73 | 115 | 4.0 | 9.0 | 0.00 | 0.02 | 0.02 | 49 | 1022.5 |
| 20260830235321 | 73 | 131 | 4.0 | 9.0 | 0.00 | 0.02 | 0.02 | 49 | 1022.5 |
| 20260830235228 | 73 | 153 | 4.0 | 10.0 | 0.00 | 0.02 | 0.02 | 48 | 1022.5 |
| 20260830235022 | 73 | 121 | 5.0 | 11.0 | 0.00 | 0.02 | 0.02 | 49 | 1022.5 |
| 20260830234916 | 73 | 141 | 5.0 | 11.0 | 0.00 | 0.02 | 0.02 | 49 | 1022.5 |
| 20260830234838 | 73 | 132 | 5.0 | 11.0 | 0.00 | 0.02 | 0.02 | 49 | 1022.4 |
| 20260830234816 | 73 | 132 | 5.0 | 11.0 | 0.00 | 0.02 | 0.02 | 48 | 1022.4 |
| 20260830234715 | 73 | 129 | 5.0 | 11.0 | 0.00 | 0.02 | 0.02 | 49 | 1022.4 |
| 20260830234615 | 73 | 118 | 4.0 | 11.0 | 0.00 | 0.02 | 0.02 | 50 | 1022.4 |
| 20260830234515 | 73 | 151 | 4.0 | 11.0 | 0.00 | 0.02 | 0.02 | 50 | 1022.4 |
| 20260830234409 | 73 | 123 | 4.0 | 11.0 | 0.00 | 0.02 | 0.02 | 50 | 1022.5 |
| 20260830234331 | 73 | 142 | 4.0 | 11.0 | 0.00 | 0.02 | 0.02 | 51 | 1022.5 |
| 20260830234309 | 73 | 153 | 4.0 | 11.0 | 0.00 | 0.02 | 0.02 | 50 | 1022.5 |
| 20260830234216 | 73 | 163 | 4.0 | 11.0 | 0.00 | 0.02 | 0.02 | 49 | 1022.5 |
| 20260830234010 | 73 | 170 | 3.0 | 7.0 | 0.00 | 0.02 | 0.02 | 51 | 1022.3 |
| 20260830233906 | 73 | 166 | 3.0 | 8.0 | 0.00 | 0.02 | 0.02 | 50 | 1022.2 |
| 20260830233832 | 73 | 115 | 3.0 | 8.0 | 0.00 | 0.02 | 0.02 | 51 | 1022.2 |
| 20260830233805 | 73 | 157 | 3.0 | 8.0 | 0.00 | 0.02 | 0.02 | 51 | 1022.2 |
| 20260830233712 | 73 | 98 | 3.0 | 8.0 | 0.00 | 0.02 | 0.02 | 51 | 1022.0 |
| 20260830233503 | 73 | 150 | 4.0 | 9.0 | 0.00 | 0.02 | 0.02 | 52 | 1022.2 |
| 20260830233412 | 73 | 138 | 4.0 | 10.0 | 0.00 | 0.02 | 0.02 | 52 | 1022.0 |
| 20260830233406 | 73 | 138 | 4.0 | 10.0 | 0.00 | 0.02 | 0.02 | 51 | 1022.0 |
| 20260830233201 | 73 | 150 | 4.0 | 10.0 | 0.00 | 0.02 | 0.02 | 52 | 1022.0 |
| 20260830233059 | 73 | 188 | 5.0 | 10.0 | 0.00 | 0.02 | 0.02 | 52 | 1022.0 |
| 20260830232958 | 73 | 159 | 5.0 | 10.0 | 0.00 | 0.02 | 0.02 | 51 | 1022.0 |
| 20260830232854 | 73 | 153 | 5.0 | 10.0 | 0.00 | 0.02 | 0.02 | 52 | 1022.0 |
| 20260830232828 | 73 | 134 | 4.0 | 10.0 | 0.00 | 0.02 | 0.02 | 52 | 1022.0 |
| 20260830232752 | 74 | 167 | 4.0 | 10.0 | 0.00 | 0.02 | 0.02 | 52 | 1022.0 |
| 20260830232652 | 74 | 113 | 5.0 | 10.0 | 0.00 | 0.02 | 0.02 | 51 | 1022.0 |
| 20260830232551 | 74 | 176 | 5.0 | 10.0 | 0.00 | 0.02 | 0.02 | 50 | 1022.0 |
| 20260830232538 | 74 | 152 | 4.0 | 10.0 | 0.00 | 0.02 | 0.02 | 50 | 1022.0 |
| 20260830232248 | 74 | 132 | 4.0 | 10.0 | 0.00 | 0.02 | 0.02 | 49 | 1022.0 |
| 20260830232147 | 74 | 132 | 4.0 | 10.0 | 0.00 | 0.02 | 0.02 | 48 | 1021.9 |
| 20260830232052 | 74 | 114 | 4.0 | 10.0 | 0.00 | 0.02 | 0.02 | 48 | 1021.9 |
| 20260830231839 | 74 | 154 | 4.0 | 8.0 | 0.00 | 0.02 | 0.02 | 48 | 1021.9 |
| 20260830231825 | 74 | 116 | 4.0 | 8.0 | 0.00 | 0.02 | 0.02 | 48 | 1021.9 |
| 20260830231740 | 74 | 147 | 4.0 | 8.0 | 0.00 | 0.02 | 0.02 | 47 | 1021.8 |
| 20260830231639 | 74 | 126 | 3.0 | 8.0 | 0.00 | 0.02 | 0.02 | 48 | 1021.8 |
| 20260830231558 | 74 | 160 | 3.0 | 8.0 | 0.00 | 0.02 | 0.02 | 48 | 1021.8 |
| 20260830231551 | 74 | 131 | 3.0 | 8.0 | 0.00 | 0.02 | 0.02 | 48 | 1021.8 |
| 20260830231133 | 74 | 148 | 2.0 | 6.0 | 0.00 | 0.02 | 0.02 | 48 | 1021.7 |
| 20260830231041 | 74 | 157 | 2.0 | 6.0 | 0.00 | 0.02 | 0.02 | 46 | 1021.8 |
| 20260830230831 | 74 | 150 | 2.0 | 5.0 | 0.00 | 0.02 | 0.02 | 47 | 1021.6 |
| 20260830230824 | 74 | 159 | 2.0 | 5.0 | 0.00 | 0.02 | 0.02 | 47 | 1021.6 |
| 20260830230732 | 74 | 161 | 2.0 | 5.0 | 0.00 | 0.02 | 0.02 | 46 | 1021.7 |
| 20260830230629 | 74 | 146 | 2.0 | 5.0 | 0.00 | 0.02 | 0.02 | 47 | 1021.7 |
| 20260830230529 | 74 | 159 | 2.0 | 5.0 | 0.00 | 0.02 | 0.02 | 46 | 1021.7 |
| 20260830230427 | 74 | 126 | 2.0 | 6.0 | 0.00 | 0.02 | 0.02 | 46 | 1021.7 |
| 20260830230323 | 74 | 126 | 2.0 | 6.0 | 0.00 | 0.02 | 0.02 | 45 | 1021.7 |
| 20260830230230 | 74 | 134 | 3.0 | 6.0 | 0.00 | 0.02 | 0.02 | 46 | 1021.7 |
| 20260830230024 | 74 | 76 | 3.0 | 6.0 | 0.00 | 0.02 | 0.02 | 47 | 1021.7 |
| 20260830225921 | 74 | 76 | 3.0 | 6.0 | 0.00 | 0.02 | 0.02 | 47 | 1021.7 |
| 20260830225824 | 74 | 76 | 3.0 | 7.0 | 0.00 | 0.02 | 0.02 | 46 | 1021.8 |
| 20260830225617 | 74 | 86 | 3.0 | 7.0 | 0.00 | 0.02 | 0.02 | 47 | 1021.8 |
| 20260830225517 | 74 | 88 | 3.0 | 7.0 | 0.00 | 0.02 | 0.02 | 46 | 1021.8 |
| 20260830225424 | 74 | 95 | 4.0 | 8.0 | 0.00 | 0.02 | 0.02 | 46 | 1021.8 |
| 20260830225312 | 74 | 110 | 4.0 | 9.0 | 0.00 | 0.02 | 0.02 | 46 | 1021.8 |
| 20260830225209 | 74 | 88 | 4.0 | 9.0 | 0.00 | 0.02 | 0.02 | 45 | 1021.8 |
| 20260830225109 | 74 | 90 | 4.0 | 9.0 | 0.00 | 0.02 | 0.02 | 46 | 1021.8 |
| 20260830225010 | 74 | 98 | 4.0 | 9.0 | 0.00 | 0.02 | 0.02 | 45 | 1021.8 |
| 20260830224924 | 74 | 123 | 4.0 | 9.0 | 0.00 | 0.02 | 0.02 | 46 | 1021.8 |
| 20260830224806 | 74 | 92 | 4.0 | 9.0 | 0.00 | 0.02 | 0.02 | 45 | 1021.8 |
| 20260830224703 | 74 | 109 | 4.0 | 9.0 | 0.00 | 0.02 | 0.02 | 45 | 1021.8 |
| 20260830224603 | 74 | 125 | 4.0 | 9.0 | 0.00 | 0.02 | 0.02 | 46 | 1021.8 |
| 20260830224503 | 74 | 93 | 4.0 | 9.0 | 0.00 | 0.02 | 0.02 | 46 | 1021.8 |
| 20260830224403 | 74 | 105 | 4.0 | 8.0 | 0.00 | 0.02 | 0.02 | 45 | 1021.9 |
| 20260830224316 | 74 | 120 | 4.0 | 8.0 | 0.00 | 0.02 | 0.02 | 45 | 1021.8 |
| 20260830224311 | 74 | 128 | 4.0 | 8.0 | 0.00 | 0.02 | 0.02 | 45 | 1021.8 |
| 20260830223957 | 74 | 132 | 3.0 | 7.0 | 0.00 | 0.02 | 0.02 | 45 | 1021.8 |
| 20260830223857 | 74 | 99 | 4.0 | 7.0 | 0.00 | 0.02 | 0.02 | 45 | 1021.8 |
| 20260830223813 | 73 | 98 | 4.0 | 7.0 | 0.00 | 0.02 | 0.02 | 45 | 1021.8 |
| 20260830223752 | 73 | 105 | 4.0 | 7.0 | 0.00 | 0.02 | 0.02 | 45 | 1021.8 |
| 20260830223652 | 73 | 107 | 3.0 | 7.0 | 0.00 | 0.02 | 0.02 | 45 | 1021.9 |
| 20260830223551 | 73 | 122 | 3.0 | 7.0 | 0.00 | 0.02 | 0.02 | 46 | 1021.9 |
| 20260830223458 | 73 | 132 | 4.0 | 8.0 | 0.00 | 0.02 | 0.02 | 46 | 1021.9 |
| 20260830223313 | 73 | 123 | 4.0 | 8.0 | 0.00 | 0.02 | 0.02 | 46 | 1022.0 |
| 20260830223245 | 73 | 108 | 4.0 | 8.0 | 0.00 | 0.02 | 0.02 | 46 | 1022.0 |
| 20260830223145 | 73 | 121 | 4.0 | 8.0 | 0.00 | 0.02 | 0.02 | 47 | 1022.0 |
| 20260830223046 | 73 | 140 | 4.0 | 8.0 | 0.00 | 0.02 | 0.02 | 48 | 1022.0 |
| 20260830222946 | 73 | 124 | 5.0 | 8.0 | 0.00 | 0.02 | 0.02 | 48 | 1022.0 |
| 20260830222919 | 73 | 123 | 4.0 | 8.0 | 0.00 | 0.02 | 0.02 | 48 | 1022.0 |
| 20260830222739 | 73 | 87 | 5.0 | 8.0 | 0.00 | 0.02 | 0.02 | 48 | 1022.0 |
| 20260830222639 | 73 | 113 | 5.0 | 8.0 | 0.00 | 0.02 | 0.02 | 47 | 1022.3 |
| 20260830222540 | 73 | 95 | 4.0 | 8.0 | 0.00 | 0.02 | 0.02 | 47 | 1022.2 |
| 20260830222447 | 73 | 119 | 4.0 | 8.0 | 0.00 | 0.02 | 0.02 | 49 | 1022.3 |
| 20260830222309 | 73 | 109 | 3.0 | 8.0 | 0.00 | 0.02 | 0.02 | 49 | 1022.3 |
| 20260830222234 | 73 | 126 | 3.0 | 8.0 | 0.00 | 0.02 | 0.02 | 48 | 1022.3 |
| 20260830222134 | 73 | 128 | 2.0 | 8.0 | 0.00 | 0.02 | 0.02 | 47 | 1022.3 |
| 20260830222031 | 73 | 105 | 2.0 | 8.0 | 0.00 | 0.02 | 0.02 | 47 | 1022.2 |
| 20260830221952 | 73 | 134 | 2.0 | 7.0 | 0.00 | 0.02 | 0.02 | 45 | 1022.3 |
| 20260830221945 | 73 | 102 | 2.0 | 7.0 | 0.00 | 0.02 | 0.02 | 44 | 1022.3 |
| 20260830221534 | 73 | 167 | 2.0 | 5.0 | 0.00 | 0.02 | 0.02 | 44 | 1022.4 |
| 20260830221307 | 73 | 167 | 2.0 | 5.0 | 0.00 | 0.02 | 0.02 | 45 | 1022.4 |
| 20260830221226 | 73 | 167 | 2.0 | 5.0 | 0.00 | 0.02 | 0.02 | 44 | 1022.3 |
| 20260830221128 | 72 | 167 | 3.0 | 6.0 | 0.00 | 0.02 | 0.02 | 43 | 1022.3 |
| 20260830220921 | 73 | 173 | 3.0 | 10.0 | 0.00 | 0.02 | 0.02 | 43 | 1022.4 |
| 20260830220806 | 73 | 192 | 3.0 | 10.0 | 0.00 | 0.02 | 0.02 | 43 | 1022.4 |
| 20260830220713 | 73 | 192 | 3.0 | 10.0 | 0.00 | 0.02 | 0.02 | 44 | 1022.5 |
| 20260830220621 | 73 | 192 | 4.0 | 10.0 | 0.00 | 0.02 | 0.02 | 43 | 1022.4 |
| 20260830220413 | 72 | 206 | 5.0 | 14.0 | 0.00 | 0.02 | 0.02 | 43 | 1022.6 |
| 20260830220319 | 73 | 225 | 5.0 | 14.0 | 0.00 | 0.02 | 0.02 | 43 | 1022.6 |
| 20260830220312 | 73 | 227 | 5.0 | 14.0 | 0.00 | 0.02 | 0.02 | 43 | 1022.6 |
| 20260830220107 | 73 | 205 | 6.0 | 14.0 | 0.00 | 0.02 | 0.02 | 43 | 1022.6 |
| 20260830220007 | 72 | 187 | 6.0 | 14.0 | 0.00 | 0.02 | 0.02 | 42 | 1022.6 |
| 20260830215917 | 72 | 225 | 7.0 | 17.0 | 0.00 | 0.02 | 0.02 | 43 | 1022.6 |
| 20260830215806 | 72 | 231 | 8.0 | 18.0 | 0.00 | 0.02 | 0.02 | 41 | 1022.6 |
| 20260830215730 | 72 | 250 | 8.0 | 18.0 | 0.00 | 0.02 | 0.02 | 42 | 1022.5 |
| 20260830215617 | 72 | 225 | 8.0 | 18.0 | 0.00 | 0.02 | 0.02 | 44 | 1022.5 |
| 20260830215201 | 71 | 205 | 7.0 | 18.0 | 0.00 | 0.02 | 0.02 | 44 | 1022.5 |
| 20260830215102 | 71 | 217 | 6.0 | 18.0 | 0.00 | 0.02 | 0.02 | 44 | 1022.4 |
| 20260830215001 | 71 | 229 | 7.0 | 18.0 | 0.00 | 0.02 | 0.02 | 43 | 1022.5 |
| 20260830214902 | 70 | 221 | 6.0 | 18.0 | 0.00 | 0.02 | 0.02 | 46 | 1022.5 |
| 20260830214802 | 70 | 205 | 6.0 | 16.0 | 0.00 | 0.02 | 0.02 | 46 | 1022.5 |
| 20260830214750 | 70 | 263 | 6.0 | 16.0 | 0.00 | 0.02 | 0.02 | 46 | 1022.5 |
| 20260830214701 | 70 | 235 | 6.0 | 16.0 | 0.00 | 0.02 | 0.02 | 46 | 1022.5 |
| 20260830214602 | 70 | 245 | 7.0 | 16.0 | 0.00 | 0.02 | 0.02 | 47 | 1022.5 |
| 20260830214501 | 69 | 180 | 8.0 | 20.0 | 0.00 | 0.02 | 0.02 | 47 | 1022.6 |
| 20260830214420 | 69 | 261 | 8.0 | 20.0 | 0.01 | 0.02 | 0.02 | 48 | 1022.6 |
| 20260830214414 | 69 | 253 | 9.0 | 20.0 | 0.01 | 0.02 | 0.02 | 49 | 1022.8 |
| 20260830214103 | 69 | 253 | 11.0 | 20.0 | 0.01 | 0.02 | 0.02 | 50 | 1022.8 |
| 20260830213856 | 69 | 284 | 12.0 | 20.0 | 0.02 | 0.02 | 0.02 | 50 | 1022.9 |
| 20260830213756 | 69 | 300 | 12.0 | 21.0 | 0.02 | 0.02 | 0.02 | 50 | 1022.9 |
| 20260830213749 | 69 | 229 | 12.0 | 21.0 | 0.02 | 0.02 | 0.02 | 50 | 1022.9 |
| 20260830213655 | 69 | 280 | 13.0 | 21.0 | 0.02 | 0.02 | 0.02 | 50 | 1022.9 |
| 20260830213555 | 69 | 242 | 13.0 | 24.0 | 0.02 | 0.02 | 0.02 | 50 | 1023.0 |
| 20260830213454 | 69 | 221 | 13.0 | 24.0 | 0.02 | 0.02 | 0.02 | 50 | 1023.0 |
| 20260830213354 | 69 | 222 | 13.0 | 24.0 | 0.02 | 0.02 | 0.02 | 51 | 1022.9 |
| 20260830213255 | 69 | 267 | 14.0 | 24.0 | 0.02 | 0.02 | 0.02 | 51 | 1022.9 |
| 20260830213248 | 69 | 263 | 14.0 | 26.0 | 0.02 | 0.02 | 0.02 | 51 | 1022.9 |
| 20260830213153 | 69 | 227 | 14.0 | 26.0 | 0.02 | 0.02 | 0.02 | 51 | 1022.8 |
| 20260830213059 | 69 | 263 | 14.0 | 26.0 | 0.02 | 0.02 | 0.02 | 50 | 1022.9 |
| 20260830212902 | 69 | 269 | 15.0 | 26.0 | 0.02 | 0.02 | 0.02 | 50 | 1022.8 |
| 20260830212751 | 69 | 299 | 15.0 | 26.0 | 0.02 | 0.02 | 0.02 | 50 | 1022.8 |
| 20260830212651 | 69 | 234 | 15.0 | 26.0 | 0.02 | 0.02 | 0.02 | 49 | 1022.8 |
| 20260830212551 | 69 | 242 | 15.0 | 26.0 | 0.02 | 0.02 | 0.02 | 50 | 1022.6 |
| 20260830212452 | 69 | 252 | 14.0 | 26.0 | 0.02 | 0.02 | 0.02 | 50 | 1022.6 |
| 20260830212352 | 69 | 267 | 14.0 | 26.0 | 0.02 | 0.02 | 0.02 | 50 | 1022.6 |
| 20260830212252 | 69 | 275 | 13.0 | 26.0 | 0.02 | 0.02 | 0.02 | 50 | 1022.8 |
| 20260830212158 | 69 | 273 | 12.0 | 26.0 | 0.02 | 0.02 | 0.02 | 51 | 1022.6 |
| 20260830211951 | 69 | 259 | 10.0 | 26.0 | 0.02 | 0.02 | 0.02 | 51 | 1022.9 |
| 20260830211852 | 69 | 275 | 10.0 | 25.0 | 0.02 | 0.02 | 0.02 | 51 | 1022.8 |
| 20260830211752 | 69 | 237 | 9.0 | 25.0 | 0.02 | 0.02 | 0.02 | 51 | 1022.8 |
| 20260830211651 | 69 | 240 | 9.0 | 23.0 | 0.02 | 0.02 | 0.02 | 52 | 1022.9 |
| 20260830211551 | 69 | 288 | 9.0 | 17.0 | 0.02 | 0.02 | 0.02 | 51 | 1022.9 |
| 20260830211451 | 69 | 273 | 9.0 | 17.0 | 0.02 | 0.02 | 0.02 | 51 | 1022.9 |
| 20260830211400 | 69 | 275 | 9.0 | 17.0 | 0.02 | 0.02 | 0.02 | 52 | 1023.0 |
| 20260830211353 | 69 | 271 | 9.0 | 17.0 | 0.02 | 0.02 | 0.02 | 51 | 1023.1 |
| 20260830211151 | 69 | 328 | 9.0 | 17.0 | 0.02 | 0.02 | 0.02 | 51 | 1023.1 |
| 20260830211051 | 69 | 288 | 10.0 | 17.0 | 0.02 | 0.02 | 0.02 | 51 | 1023.1 |
| 20260830210951 | 69 | 264 | 10.0 | 21.0 | 0.02 | 0.02 | 0.02 | 52 | 1023.1 |
| 20260830210849 | 68 | 355 | 10.0 | 21.0 | 0.02 | 0.02 | 0.02 | 51 | 1023.1 |
| 20260830210750 | 68 | 303 | 11.0 | 21.0 | 0.02 | 0.02 | 0.02 | 51 | 1023.1 |
| 20260830210649 | 68 | 322 | 11.0 | 22.0 | 0.02 | 0.02 | 0.02 | 53 | 1023.2 |
| 20260830210543 | 68 | 278 | 11.0 | 24.0 | 0.02 | 0.02 | 0.02 | 55 | 1023.2 |
| 20260830210443 | 68 | 265 | 11.0 | 24.0 | 0.02 | 0.02 | 0.02 | 56 | 1023.2 |
| 20260830210344 | 68 | 298 | 11.0 | 24.0 | 0.02 | 0.02 | 0.02 | 56 | 1023.2 |
| 20260830210302 | 68 | 287 | 12.0 | 24.0 | 0.02 | 0.02 | 0.02 | 56 | 1023.2 |
| 20260830210257 | 68 | 258 | 12.0 | 24.0 | 0.02 | 0.02 | 0.02 | 56 | 1023.2 |
| 20260830205943 | 67 | 270 | 12.0 | 24.0 | 0.02 | 0.02 | 0.02 | 57 | 1023.2 |
| 20260830205843 | 67 | 296 | 12.0 | 24.0 | 0.02 | 0.02 | 0.02 | 57 | 1023.1 |
| 20260830205755 | 66 | 278 | 12.0 | 24.0 | 0.02 | 0.02 | 0.02 | 59 | 1023.1 |
| 20260830205750 | 66 | 310 | 12.0 | 24.0 | 0.02 | 0.02 | 0.02 | 59 | 1023.1 |
| 20260830205544 | 66 | 308 | 12.0 | 23.0 | 0.02 | 0.02 | 0.02 | 61 | 1023.1 |
| 20260830205459 | 66 | 268 | 12.0 | 23.0 | 0.02 | 0.02 | 0.02 | 61 | 1023.1 |
| 20260830205346 | 65 | 311 | 12.0 | 23.0 | 0.02 | 0.02 | 0.02 | 63 | 1023.2 |
| 20260830205141 | 65 | 287 | 12.0 | 23.0 | 0.02 | 0.02 | 0.02 | 63 | 1023.2 |
| 20260830205049 | 65 | 325 | 12.0 | 23.0 | 0.02 | 0.02 | 0.02 | 64 | 1023.2 |
| 20260830204851 | 65 | 292 | 12.0 | 22.0 | 0.02 | 0.02 | 0.02 | 66 | 1023.1 |
| 20260830204845 | 65 | 296 | 13.0 | 25.0 | 0.02 | 0.02 | 0.02 | 65 | 1023.1 |
| 20260830204642 | 65 | 292 | 13.0 | 26.0 | 0.02 | 0.02 | 0.02 | 66 | 1023.1 |
| 20260830204542 | 66 | 278 | 14.0 | 32.0 | 0.02 | 0.02 | 0.02 | 65 | 1023.0 |
| 20260830204441 | 66 | 300 | 14.0 | 32.0 | 0.02 | 0.02 | 0.02 | 65 | 1023.0 |
| 20260830204353 | 66 | 286 | 14.0 | 32.0 | 0.01 | 0.01 | 0.02 | 64 | 1023.0 |
| 20260830204346 | 67 | 292 | 14.0 | 32.0 | 0.01 | 0.01 | 0.02 | 64 | 1023.0 |
| 20260830204141 | 67 | 311 | 14.0 | 32.0 | 0.01 | 0.01 | 0.01 | 64 | 1023.0 |
| 20260830204048 | 67 | 265 | 14.0 | 32.0 | 0.01 | 0.01 | 0.01 | 62 | 1023.0 |
| 20260830203841 | 68 | 260 | 15.0 | 32.0 | 0.00 | 0.00 | 0.00 | 57 | 1023.0 |
| 20260830203745 | 69 | 279 | 15.0 | 32.0 | 0.00 | 0.00 | 0.00 | 58 | 1023.0 |
| 20260830203741 | 69 | 306 | 15.0 | 32.0 | 0.00 | 0.00 | 0.00 | 58 | 1023.0 |
| 20260830203642 | 70 | 264 | 15.0 | 32.0 | 0.00 | 0.00 | 0.00 | 57 | 1023.1 |
| 20260830203542 | 70 | 275 | 16.0 | 31.0 | 0.00 | 0.00 | 0.00 | 57 | 1022.9 |
| 20260830203437 | 71 | 278 | 18.0 | 31.0 | 0.00 | 0.00 | 0.00 | 54 | 1023.0 |
| 20260830203337 | 71 | 315 | 19.0 | 32.0 | 0.00 | 0.00 | 0.00 | 52 | 1023.0 |
| 20260830203248 | 71 | 326 | 19.0 | 32.0 | 0.00 | 0.00 | 0.00 | 50 | 1023.0 |
| 20260830203244 | 71 | 292 | 20.0 | 33.0 | 0.00 | 0.00 | 0.00 | 48 | 1023.2 |
| 20260830203037 | 72 | 317 | 24.0 | 45.0 | 0.00 | 0.00 | 0.00 | 45 | 1023.2 |
| 20260830202937 | 72 | 304 | 25.0 | 49.0 | 0.00 | 0.00 | 0.00 | 43 | 1023.2 |
| 20260830202849 | 73 | 277 | 26.0 | 49.0 | 0.00 | 0.00 | 0.00 | 42 | 1023.2 |
| 20260830202842 | 73 | 316 | 26.0 | 49.0 | 0.00 | 0.00 | 0.00 | 41 | 1023.2 |
| 20260830202637 | 73 | 254 | 27.0 | 49.0 | 0.00 | 0.00 | 0.00 | 39 | 1023.1 |
| 20260830202537 | 74 | 317 | 27.0 | 49.0 | 0.00 | 0.00 | 0.00 | 40 | 1023.0 |
| 20260830202437 | 74 | 292 | 26.0 | 49.0 | 0.00 | 0.00 | 0.00 | 39 | 1023.0 |
| 20260830202349 | 74 | 290 | 26.0 | 49.0 | 0.00 | 0.00 | 0.00 | 39 | 1023.0 |
| 20260830202237 | 74 | 284 | 24.0 | 49.0 | 0.00 | 0.00 | 0.00 | 37 | 1023.0 |
| 20260830202137 | 75 | 326 | 22.0 | 49.0 | 0.00 | 0.00 | 0.00 | 37 | 1022.8 |
| 20260830202037 | 75 | 337 | 20.0 | 49.0 | 0.00 | 0.00 | 0.00 | 38 | 1022.6 |
| 20260830201937 | 76 | 308 | 18.0 | 41.0 | 0.00 | 0.00 | 0.00 | 38 | 1022.6 |
| 20260830201837 | 76 | 316 | 17.0 | 40.0 | 0.00 | 0.00 | 0.00 | 38 | 1022.6 |
| 20260830201745 | 77 | 292 | 17.0 | 40.0 | 0.00 | 0.00 | 0.00 | 47 | 1022.6 |
| 20260830201737 | 77 | 311 | 15.0 | 40.0 | 0.00 | 0.00 | 0.00 | 47 | 1022.6 |
| 20260830201637 | 78 | 327 | 15.0 | 29.0 | 0.00 | 0.00 | 0.00 | 47 | 1022.5 |
| 20260830201533 | 78 | 328 | 13.0 | 29.0 | 0.00 | 0.00 | 0.00 | 47 | 1022.5 |
| 20260830201440 | 79 | 305 | 13.0 | 25.0 | 0.00 | 0.00 | 0.00 | 45 | 1022.4 |
| 20260830201242 | 79 | 302 | 12.0 | 21.0 | 0.00 | 0.00 | 0.00 | 41 | 1022.2 |
| 20260830201233 | 79 | 311 | 11.0 | 21.0 | 0.00 | 0.00 | 0.00 | 41 | 1022.2 |
| 20260830201133 | 79 | 323 | 11.0 | 21.0 | 0.00 | 0.00 | 0.00 | 39 | 1022.0 |
| 20260830201039 | 79 | 320 | 10.0 | 19.0 | 0.00 | 0.00 | 0.00 | 38 | 1022.0 |
| 20260830200833 | 79 | 286 | 10.0 | 19.0 | 0.00 | 0.00 | 0.00 | 37 | 1022.0 |
| 20260830200744 | 80 | 302 | 10.0 | 19.0 | 0.00 | 0.00 | 0.00 | 38 | 1022.0 |
| 20260830200740 | 80 | 296 | 9.0 | 19.0 | 0.00 | 0.00 | 0.00 | 38 | 1022.0 |
| 20260830200534 | 80 | 287 | 9.0 | 16.0 | 0.00 | 0.00 | 0.00 | 39 | 1022.0 |
| 20260830200434 | 80 | 262 | 9.0 | 16.0 | 0.00 | 0.00 | 0.00 | 38 | 1022.0 |
| 20260830200350 | 80 | 286 | 9.0 | 15.0 | 0.00 | 0.00 | 0.00 | 36 | 1022.0 |
| 20260830200233 | 81 | 296 | 8.0 | 15.0 | 0.00 | 0.00 | 0.00 | 37 | 1021.9 |
| 20260830200132 | 81 | 259 | 8.0 | 15.0 | 0.00 | 0.00 | 0.00 | 36 | 1021.8 |
| 20260830200033 | 81 | 267 | 7.0 | 15.0 | 0.00 | 0.00 | 0.00 | 37 | 1021.6 |
| 20260830195933 | 81 | 292 | 7.0 | 15.0 | 0.00 | 0.00 | 0.00 | 36 | 1021.6 |
| 20260830195833 | 81 | 277 | 7.0 | 15.0 | 0.00 | 0.00 | 0.00 | 36 | 1021.6 |
| 20260830195739 | 81 | 268 | 7.0 | 15.0 | 0.00 | 0.00 | 0.00 | 37 | 1021.3 |
| 20260830195733 | 81 | 260 | 6.0 | 15.0 | 0.00 | 0.00 | 0.00 | 37 | 1021.3 |
| 20260830195629 | 81 | 306 | 5.0 | 14.0 | 0.00 | 0.00 | 0.00 | 37 | 1021.3 |
| 20260830195554 | 82 | 304 | 4.0 | 14.0 | 0.00 | 0.00 | 0.00 | 36 | 1021.3 |
| 20260830195547 | 82 | 287 | 4.0 | 14.0 | 0.00 | 0.00 | 0.00 | 36 | 1021.2 |
| 20260830195128 | 82 | 315 | 3.0 | 8.0 | 0.00 | 0.00 | 0.00 | 34 | 1021.1 |
| 20260830195029 | 82 | 319 | 2.0 | 8.0 | 0.00 | 0.00 | 0.00 | 34 | 1021.1 |
| 20260830194929 | 83 | 320 | 2.0 | 8.0 | 0.00 | 0.00 | 0.00 | 35 | 1021.1 |
| 20260830194828 | 83 | 331 | 2.0 | 7.0 | 0.00 | 0.00 | 0.00 | 35 | 1021.1 |
| 20260830194738 | 83 | 297 | 2.0 | 6.0 | 0.00 | 0.00 | 0.00 | 36 | 1021.0 |
| 20260830194729 | 83 | 321 | 1.0 | 6.0 | 0.00 | 0.00 | 0.00 | 36 | 1021.0 |
| 20260830194629 | 83 | 319 | 1.0 | 6.0 | 0.00 | 0.00 | 0.00 | 39 | 1021.0 |
| 20260830194600 | 83 | 23 | 2.0 | 6.0 | 0.00 | 0.00 | 0.00 | 37 | 1021.1 |
| 20260830194236 | 83 | 346 | 2.0 | 8.0 | 0.00 | 0.00 | 0.00 | 35 | 1021.0 |
| 20260830194028 | 83 | 290 | 3.0 | 8.0 | 0.00 | 0.00 | 0.00 | 33 | 1021.0 |
| 20260830193929 | 83 | 290 | 3.0 | 8.0 | 0.00 | 0.00 | 0.00 | 35 | 1021.0 |
| 20260830193829 | 83 | 189 | 3.0 | 8.0 | 0.00 | 0.00 | 0.00 | 36 | 1021.0 |
| 20260830193738 | 83 | 189 | 3.0 | 8.0 | 0.00 | 0.00 | 0.00 | 35 | 1020.9 |
| 20260830193725 | 83 | 189 | 4.0 | 8.0 | 0.00 | 0.00 | 0.00 | 35 | 1020.9 |
| 20260830193632 | 83 | 189 | 4.0 | 8.0 | 0.00 | 0.00 | 0.00 | 34 | 1020.9 |
| 20260830193425 | 83 | 181 | 4.0 | 8.0 | 0.00 | 0.00 | 0.00 | 35 | 1020.7 |
| 20260830193325 | 83 | 198 | 4.0 | 8.0 | 0.00 | 0.00 | 0.00 | 35 | 1020.6 |
| 20260830193238 | 83 | 128 | 4.0 | 12.0 | 0.00 | 0.00 | 0.00 | 35 | 1020.7 |
| 20260830193232 | 83 | 140 | 4.0 | 14.0 | 0.00 | 0.00 | 0.00 | 35 | 1020.7 |
| 20260830193032 | 83 | 132 | 5.0 | 14.0 | 0.00 | 0.00 | 0.00 | 35 | 1020.5 |
| 20260830192837 | 83 | 53 | 6.0 | 14.0 | 0.00 | 0.00 | 0.00 | 35 | 1020.6 |
| 20260830192829 | 83 | 96 | 6.0 | 14.0 | 0.00 | 0.00 | 0.00 | 33 | 1020.6 |
| 20260830192631 | 83 | 130 | 6.0 | 14.0 | 0.00 | 0.00 | 0.00 | 33 | 1020.5 |
| 20260830192425 | 83 | 162 | 6.0 | 14.0 | 0.00 | 0.00 | 0.00 | 34 | 1020.5 |
| 20260830192345 | 83 | 157 | 6.0 | 14.0 | 0.00 | 0.00 | 0.00 | 36 | 1020.5 |
| 20260830192225 | 83 | 173 | 5.0 | 13.0 | 0.00 | 0.00 | 0.00 | 38 | 1020.5 |
| 20260830192125 | 83 | 134 | 5.0 | 12.0 | 0.00 | 0.00 | 0.00 | 38 | 1020.4 |
| 20260830192025 | 83 | 172 | 5.0 | 12.0 | 0.00 | 0.00 | 0.00 | 37 | 1020.5 |
| 20260830191925 | 83 | 165 | 5.0 | 12.0 | 0.00 | 0.00 | 0.00 | 34 | 1020.5 |
| 20260830191821 | 83 | 118 | 4.0 | 11.0 | 0.00 | 0.00 | 0.00 | 35 | 1020.4 |
| 20260830191738 | 83 | 113 | 4.0 | 11.0 | 0.00 | 0.00 | 0.00 | 35 | 1020.5 |
| 20260830191721 | 83 | 126 | 4.0 | 11.0 | 0.00 | 0.00 | 0.00 | 35 | 1020.5 |
| 20260830191621 | 83 | 151 | 4.0 | 11.0 | 0.00 | 0.00 | 0.00 | 35 | 1020.4 |
| 20260830191528 | 83 | 150 | 4.0 | 10.0 | 0.00 | 0.00 | 0.00 | 35 | 1020.4 |
| 20260830191321 | 82 | 130 | 4.0 | 10.0 | 0.00 | 0.00 | 0.00 | 38 | 1020.5 |
| 20260830191237 | 82 | 132 | 4.0 | 10.0 | 0.00 | 0.00 | 0.00 | 36 | 1020.5 |
| 20260830191222 | 82 | 132 | 4.0 | 10.0 | 0.00 | 0.00 | 0.00 | 37 | 1020.5 |
| 20260830191121 | 82 | 133 | 4.0 | 10.0 | 0.00 | 0.00 | 0.00 | 35 | 1020.5 |
| 20260830191021 | 82 | 74 | 5.0 | 10.0 | 0.00 | 0.00 | 0.00 | 35 | 1020.5 |
| 20260830190921 | 82 | 78 | 5.0 | 10.0 | 0.00 | 0.00 | 0.00 | 35 | 1020.5 |
| 20260830190821 | 82 | 83 | 4.0 | 10.0 | 0.00 | 0.00 | 0.00 | 36 | 1020.5 |
| 20260830190736 | 82 | 102 | 4.0 | 10.0 | 0.00 | 0.00 | 0.00 | 35 | 1020.5 |
| 20260830190721 | 82 | 138 | 4.0 | 10.0 | 0.00 | 0.00 | 0.00 | 35 | 1020.5 |
| 20260830190622 | 82 | 88 | 5.0 | 8.0 | 0.00 | 0.00 | 0.00 | 34 | 1020.5 |
| 20260830190521 | 82 | 80 | 5.0 | 10.0 | 0.00 | 0.00 | 0.00 | 35 | 1020.5 |
| 20260830190420 | 82 | 60 | 5.0 | 13.0 | 0.00 | 0.00 | 0.00 | 35 | 1020.6 |
| 20260830190332 | 82 | 101 | 6.0 | 13.0 | 0.00 | 0.00 | 0.00 | 35 | 1020.6 |
| 20260830190325 | 82 | 71 | 6.0 | 13.0 | 0.00 | 0.00 | 0.00 | 35 | 1020.6 |
| 20260830190121 | 82 | 117 | 6.0 | 13.0 | 0.00 | 0.00 | 0.00 | 35 | 1020.6 |
| 20260830190026 | 82 | 93 | 6.0 | 13.0 | 0.00 | 0.00 | 0.00 | 36 | 1020.6 |
| 20260830185843 | 82 | 151 | 6.0 | 13.0 | 0.00 | 0.00 | 0.00 | 34 | 1020.6 |
| 20260830185726 | 82 | 117 | 6.0 | 13.0 | 0.00 | 0.00 | 0.00 | 33 | 1020.6 |
| 20260830185533 | 83 | 103 | 6.0 | 13.0 | 0.00 | 0.00 | 0.00 | 34 | 1020.6 |
| 20260830185236 | 83 | 103 | 6.0 | 12.0 | 0.00 | 0.00 | 0.00 | 34 | 1020.7 |
| 20260830185220 | 83 | 109 | 6.0 | 12.0 | 0.00 | 0.00 | 0.00 | 34 | 1020.7 |
| 20260830185119 | 83 | 96 | 6.0 | 12.0 | 0.00 | 0.00 | 0.00 | 35 | 1020.7 |
| 20260830185019 | 83 | 101 | 5.0 | 12.0 | 0.00 | 0.00 | 0.00 | 34 | 1020.7 |
| 20260830184919 | 83 | 80 | 5.0 | 12.0 | 0.00 | 0.00 | 0.00 | 34 | 1020.7 |
| 20260830184818 | 83 | 114 | 6.0 | 12.0 | 0.00 | 0.00 | 0.00 | 35 | 1020.7 |
| 20260830184735 | 83 | 127 | 6.0 | 12.0 | 0.00 | 0.00 | 0.00 | 36 | 1020.7 |
| 20260830184715 | 83 | 141 | 6.0 | 12.0 | 0.00 | 0.00 | 0.00 | 36 | 1020.7 |
| 20260830184615 | 83 | 152 | 6.0 | 12.0 | 0.00 | 0.00 | 0.00 | 35 | 1020.9 |
| 20260830184518 | 83 | 116 | 6.0 | 11.0 | 0.00 | 0.00 | 0.00 | 36 | 1020.9 |
| 20260830184310 | 83 | 157 | 6.0 | 10.0 | 0.00 | 0.00 | 0.00 | 34 | 1020.9 |
| 20260830184234 | 83 | 103 | 6.0 | 10.0 | 0.00 | 0.00 | 0.00 | 34 | 1020.7 |
| 20260830184208 | 83 | 103 | 6.0 | 10.0 | 0.00 | 0.00 | 0.00 | 36 | 1020.7 |
| 20260830184107 | 83 | 130 | 6.0 | 10.0 | 0.00 | 0.00 | 0.00 | 35 | 1020.7 |
| 20260830184007 | 83 | 142 | 5.0 | 10.0 | 0.00 | 0.00 | 0.00 | 36 | 1020.9 |
| 20260830183905 | 83 | 144 | 5.0 | 10.0 | 0.00 | 0.00 | 0.00 | 35 | 1020.9 |
| 20260830183841 | 83 | 114 | 5.0 | 10.0 | 0.00 | 0.00 | 0.00 | 38 | 1020.9 |
| 20260830183701 | 83 | 154 | 5.0 | 10.0 | 0.00 | 0.00 | 0.00 | 37 | 1020.9 |
| 20260830183600 | 82 | 109 | 5.0 | 10.0 | 0.00 | 0.00 | 0.00 | 35 | 1020.9 |
| 20260830183500 | 82 | 161 | 5.0 | 11.0 | 0.00 | 0.00 | 0.00 | 35 | 1020.9 |
| 20260830183400 | 82 | 97 | 5.0 | 11.0 | 0.00 | 0.00 | 0.00 | 35 | 1021.0 |
| 20260830183310 | 82 | 96 | 5.0 | 11.0 | 0.00 | 0.00 | 0.00 | 35 | 1021.0 |
| 20260830183303 | 82 | 108 | 5.0 | 11.0 | 0.00 | 0.00 | 0.00 | 35 | 1020.9 |
| 20260830183056 | 82 | 175 | 4.0 | 11.0 | 0.00 | 0.00 | 0.00 | 36 | 1020.9 |
| 20260830183002 | 82 | 184 | 4.0 | 11.0 | 0.00 | 0.00 | 0.00 | 35 | 1020.9 |
| 20260830182841 | 82 | 107 | 5.0 | 11.0 | 0.00 | 0.00 | 0.00 | 36 | 1021.0 |
| 20260830182702 | 82 | 127 | 5.0 | 11.0 | 0.00 | 0.00 | 0.00 | 34 | 1021.0 |
| 20260830182453 | 82 | 125 | 5.0 | 12.0 | 0.00 | 0.00 | 0.00 | 39 | 1021.0 |
| 20260830182401 | 82 | 146 | 5.0 | 13.0 | 0.00 | 0.00 | 0.00 | 37 | 1021.1 |
| 20260830182233 | 82 | 101 | 5.0 | 13.0 | 0.00 | 0.00 | 0.00 | 35 | 1021.1 |
| 20260830182152 | 82 | 101 | 5.0 | 13.0 | 0.00 | 0.00 | 0.00 | 35 | 1021.1 |
| 20260830182053 | 82 | 119 | 6.0 | 13.0 | 0.00 | 0.00 | 0.00 | 36 | 1021.1 |
| 20260830181953 | 82 | 132 | 6.0 | 13.0 | 0.00 | 0.00 | 0.00 | 37 | 1021.1 |
| 20260830181853 | 82 | 136 | 6.0 | 13.0 | 0.00 | 0.00 | 0.00 | 36 | 1021.1 |
| 20260830181753 | 82 | 114 | 6.0 | 13.0 | 0.00 | 0.00 | 0.00 | 35 | 1021.1 |
| 20260830181731 | 82 | 135 | 6.0 | 13.0 | 0.00 | 0.00 | 0.00 | 36 | 1021.1 |
| 20260830181653 | 82 | 146 | 6.0 | 13.0 | 0.00 | 0.00 | 0.00 | 36 | 1021.1 |
| 20260830181552 | 82 | 155 | 6.0 | 13.0 | 0.00 | 0.00 | 0.00 | 37 | 1021.1 |
| 20260830181447 | 82 | 168 | 5.0 | 13.0 | 0.00 | 0.00 | 0.00 | 37 | 1021.2 |
| 20260830181345 | 82 | 119 | 5.0 | 12.0 | 0.00 | 0.00 | 0.00 | 36 | 1021.1 |
| 20260830181245 | 82 | 112 | 5.0 | 12.0 | 0.00 | 0.00 | 0.00 | 35 | 1021.1 |
| 20260830181229 | 82 | 144 | 6.0 | 12.0 | 0.00 | 0.00 | 0.00 | 35 | 1021.1 |
| 20260830181145 | 82 | 133 | 6.0 | 12.0 | 0.00 | 0.00 | 0.00 | 36 | 1021.1 |
| 20260830181044 | 82 | 152 | 5.0 | 12.0 | 0.00 | 0.00 | 0.00 | 36 | 1021.1 |
| 20260830180940 | 82 | 151 | 5.0 | 12.0 | 0.00 | 0.00 | 0.00 | 36 | 1021.2 |
| 20260830180839 | 82 | 138 | 5.0 | 12.0 | 0.00 | 0.00 | 0.00 | 37 | 1021.1 |
| 20260830180739 | 82 | 199 | 5.0 | 12.0 | 0.00 | 0.00 | 0.00 | 38 | 1021.1 |
| 20260830180726 | 82 | 169 | 5.0 | 12.0 | 0.00 | 0.00 | 0.00 | 38 | 1021.1 |
| 20260830180647 | 82 | 159 | 5.0 | 12.0 | 0.00 | 0.00 | 0.00 | 39 | 1021.1 |
| 20260830180333 | 82 | 183 | 6.0 | 10.0 | 0.00 | 0.00 | 0.00 | 36 | 1021.2 |
| 20260830180233 | 82 | 184 | 6.0 | 10.0 | 0.00 | 0.00 | 0.00 | 36 | 1021.2 |
| 20260830180227 | 82 | 180 | 6.0 | 10.0 | 0.00 | 0.00 | 0.00 | 36 | 1021.2 |
| 20260830180133 | 82 | 171 | 6.0 | 10.0 | 0.00 | 0.00 | 0.00 | 38 | 1021.2 |
| 20260830180032 | 82 | 101 | 6.0 | 10.0 | 0.00 | 0.00 | 0.00 | 35 | 1021.2 |
| 20260830175927 | 82 | 119 | 5.0 | 10.0 | 0.00 | 0.00 | 0.00 | 36 | 1021.2 |
| 20260830175844 | 82 | 169 | 5.0 | 10.0 | 0.00 | 0.00 | 0.00 | 37 | 1021.3 |
| 20260830175734 | 82 | 162 | 5.0 | 10.0 | 0.00 | 0.00 | 0.00 | 37 | 1021.3 |
| 20260830175527 | 82 | 106 | 5.0 | 10.0 | 0.00 | 0.00 | 0.00 | 33 | 1021.3 |
| 20260830175439 | 82 | 128 | 5.0 | 10.0 | 0.00 | 0.00 | 0.00 | 33 | 1021.3 |
| 20260830175432 | 82 | 115 | 5.0 | 9.0 | 0.00 | 0.00 | 0.00 | 34 | 1021.3 |
| 20260830175120 | 82 | 144 | 5.0 | 12.0 | 0.00 | 0.00 | 0.00 | 34 | 1021.3 |
| 20260830175031 | 82 | 132 | 5.0 | 12.0 | 0.00 | 0.00 | 0.00 | 37 | 1021.5 |
| 20260830174726 | 82 | 152 | 5.0 | 12.0 | 0.00 | 0.00 | 0.00 | 36 | 1021.5 |
| 20260830174717 | 82 | 123 | 5.0 | 12.0 | 0.00 | 0.00 | 0.00 | 36 | 1021.5 |
| 20260830174617 | 83 | 119 | 6.0 | 12.0 | 0.00 | 0.00 | 0.00 | 36 | 1021.3 |
| 20260830174514 | 83 | 88 | 6.0 | 13.0 | 0.00 | 0.00 | 0.00 | 35 | 1021.5 |
| 20260830174427 | 83 | 113 | 6.0 | 13.0 | 0.00 | 0.00 | 0.00 | 36 | 1021.5 |
| 20260830174420 | 83 | 95 | 6.0 | 13.0 | 0.00 | 0.00 | 0.00 | 36 | 1021.5 |
| 20260830174109 | 83 | 166 | 6.0 | 13.0 | 0.00 | 0.00 | 0.00 | 36 | 1021.5 |
| 20260830174008 | 83 | 123 | 6.0 | 13.0 | 0.00 | 0.00 | 0.00 | 38 | 1021.5 |
| 20260830173910 | 83 | 119 | 6.0 | 13.0 | 0.00 | 0.00 | 0.00 | 36 | 1021.5 |
| 20260830173726 | 82 | 149 | 7.0 | 13.0 | 0.00 | 0.00 | 0.00 | 36 | 1021.6 |
| 20260830173703 | 82 | 126 | 7.0 | 13.0 | 0.00 | 0.00 | 0.00 | 36 | 1021.6 |
| 20260830173602 | 82 | 141 | 6.0 | 13.0 | 0.00 | 0.00 | 0.00 | 39 | 1021.6 |
| 20260830173502 | 82 | 116 | 6.0 | 11.0 | 0.00 | 0.00 | 0.00 | 36 | 1021.6 |
| 20260830173359 | 82 | 122 | 6.0 | 11.0 | 0.00 | 0.00 | 0.00 | 38 | 1021.6 |
| 20260830173333 | 82 | 167 | 6.0 | 11.0 | 0.00 | 0.00 | 0.00 | 38 | 1021.6 |
| 20260830173157 | 82 | 121 | 6.0 | 11.0 | 0.00 | 0.00 | 0.00 | 38 | 1021.6 |
| 20260830173103 | 81 | 101 | 6.0 | 12.0 | 0.00 | 0.00 | 0.00 | 41 | 1021.6 |
| 20260830172850 | 81 | 94 | 7.0 | 12.0 | 0.00 | 0.00 | 0.00 | 36 | 1021.6 |
| 20260830172751 | 81 | 107 | 6.0 | 12.0 | 0.00 | 0.00 | 0.00 | 37 | 1021.6 |
| 20260830172726 | 81 | 117 | 7.0 | 12.0 | 0.00 | 0.00 | 0.00 | 37 | 1021.6 |
| 20260830172651 | 81 | 146 | 7.0 | 12.0 | 0.00 | 0.00 | 0.00 | 37 | 1021.6 |
| 20260830172551 | 81 | 115 | 7.0 | 12.0 | 0.00 | 0.00 | 0.00 | 36 | 1021.6 |
| 20260830172450 | 81 | 136 | 7.0 | 12.0 | 0.00 | 0.00 | 0.00 | 37 | 1021.6 |
| 20260830172345 | 81 | 104 | 7.0 | 12.0 | 0.00 | 0.00 | 0.00 | 36 | 1021.6 |
| 20260830172257 | 81 | 100 | 7.0 | 12.0 | 0.00 | 0.00 | 0.00 | 35 | 1021.6 |
| 20260830172249 | 81 | 84 | 7.0 | 12.0 | 0.00 | 0.00 | 0.00 | 35 | 1021.6 |
| 20260830172045 | 81 | 106 | 7.0 | 12.0 | 0.00 | 0.00 | 0.00 | 38 | 1021.6 |
| 20260830171944 | 81 | 139 | 7.0 | 12.0 | 0.00 | 0.00 | 0.00 | 39 | 1021.7 |
| 20260830171838 | 81 | 114 | 6.0 | 12.0 | 0.00 | 0.00 | 0.00 | 37 | 1021.7 |
| 20260830171739 | 81 | 133 | 6.0 | 12.0 | 0.00 | 0.00 | 0.00 | 36 | 1021.6 |
| 20260830171724 | 81 | 102 | 6.0 | 12.0 | 0.00 | 0.00 | 0.00 | 36 | 1021.6 |
| 20260830171639 | 81 | 106 | 6.0 | 12.0 | 0.00 | 0.00 | 0.00 | 37 | 1021.7 |
| 20260830171538 | 81 | 142 | 6.0 | 12.0 | 0.00 | 0.00 | 0.00 | 37 | 1021.7 |
| 20260830171439 | 81 | 118 | 6.0 | 12.0 | 0.00 | 0.00 | 0.00 | 38 | 1021.6 |
| 20260830171339 | 81 | 115 | 6.0 | 12.0 | 0.00 | 0.00 | 0.00 | 35 | 1021.6 |
| 20260830171239 | 81 | 84 | 5.0 | 10.0 | 0.00 | 0.00 | 0.00 | 34 | 1021.7 |
| 20260830171222 | 81 | 91 | 5.0 | 10.0 | 0.00 | 0.00 | 0.00 | 34 | 1021.7 |
| 20260830171139 | 81 | 58 | 5.0 | 10.0 | 0.00 | 0.00 | 0.00 | 35 | 1021.7 |
| 20260830171038 | 81 | 91 | 5.0 | 10.0 | 0.00 | 0.00 | 0.00 | 36 | 1021.7 |
| 20260830170938 | 81 | 98 | 5.0 | 11.0 | 0.00 | 0.00 | 0.00 | 36 | 1021.7 |
| 20260830170839 | 81 | 101 | 5.0 | 11.0 | 0.00 | 0.00 | 0.00 | 36 | 1021.7 |
| 20260830170739 | 81 | 95 | 5.0 | 11.0 | 0.00 | 0.00 | 0.00 | 35 | 1021.7 |
| 20260830170722 | 81 | 149 | 5.0 | 11.0 | 0.00 | 0.00 | 0.00 | 35 | 1021.7 |
| 20260830170644 | 81 | 121 | 4.0 | 11.0 | 0.00 | 0.00 | 0.00 | 35 | 1021.7 |
| 20260830170443 | 81 | 128 | 4.0 | 11.0 | 0.00 | 0.00 | 0.00 | 40 | 1021.7 |
| 20260830170222 | 81 | 140 | 5.0 | 11.0 | 0.00 | 0.00 | 0.00 | 39 | 1021.7 |
| 20260830170151 | 81 | 165 | 4.0 | 11.0 | 0.00 | 0.00 | 0.00 | 37 | 1021.7 |
| 20260830165848 | 81 | 190 | 5.0 | 11.0 | 0.00 | 0.00 | 0.00 | 38 | 1021.7 |
| 20260830165735 | 81 | 88 | 6.0 | 12.0 | 0.00 | 0.00 | 0.00 | 39 | 1021.8 |
| 20260830165531 | 81 | 157 | 6.0 | 12.0 | 0.00 | 0.00 | 0.00 | 38 | 1021.8 |
| 20260830165431 | 81 | 120 | 6.0 | 12.0 | 0.00 | 0.00 | 0.00 | 38 | 1021.8 |
| 20260830165336 | 81 | 126 | 6.0 | 12.0 | 0.00 | 0.00 | 0.00 | 37 | 1021.8 |
| 20260830165221 | 81 | 126 | 6.0 | 12.0 | 0.00 | 0.00 | 0.00 | 40 | 1021.7 |
| 20260830165125 | 81 | 143 | 7.0 | 12.0 | 0.00 | 0.00 | 0.00 | 39 | 1021.7 |
| 20260830165023 | 80 | 141 | 7.0 | 12.0 | 0.00 | 0.00 | 0.00 | 40 | 1021.8 |
| 20260830164923 | 80 | 171 | 7.0 | 12.0 | 0.00 | 0.00 | 0.00 | 39 | 1021.8 |
| 20260830164822 | 80 | 178 | 6.0 | 12.0 | 0.00 | 0.00 | 0.00 | 40 | 1021.8 |
| 20260830164723 | 80 | 189 | 7.0 | 12.0 | 0.00 | 0.00 | 0.00 | 43 | 1021.8 |
| 20260830164517 | 80 | 209 | 6.0 | 12.0 | 0.00 | 0.00 | 0.00 | 40 | 1021.9 |
| 20260830164416 | 80 | 150 | 6.0 | 12.0 | 0.00 | 0.00 | 0.00 | 40 | 1021.9 |
| 20260830164317 | 80 | 142 | 6.0 | 12.0 | 0.00 | 0.00 | 0.00 | 42 | 1021.9 |
| 20260830164216 | 80 | 182 | 7.0 | 12.0 | 0.00 | 0.00 | 0.00 | 43 | 1021.9 |
| 20260830164119 | 79 | 180 | 6.0 | 11.0 | 0.00 | 0.00 | 0.00 | 42 | 1021.9 |
| 20260830163911 | 79 | 215 | 6.0 | 11.0 | 0.00 | 0.00 | 0.00 | 43 | 1021.9 |
| 20260830163823 | 79 | 128 | 6.0 | 12.0 | 0.00 | 0.00 | 0.00 | 41 | 1021.9 |
| 20260830163711 | 79 | 165 | 6.0 | 12.0 | 0.00 | 0.00 | 0.00 | 43 | 1021.8 |
| 20260830163505 | 79 | 132 | 7.0 | 12.0 | 0.00 | 0.00 | 0.00 | 40 | 1021.9 |
| 20260830163405 | 79 | 132 | 7.0 | 12.0 | 0.00 | 0.00 | 0.00 | 40 | 1021.8 |
| 20260830163315 | 79 | 151 | 7.0 | 12.0 | 0.00 | 0.00 | 0.00 | 40 | 1021.8 |
| 20260830163309 | 79 | 119 | 6.0 | 12.0 | 0.00 | 0.00 | 0.00 | 41 | 1021.8 |
| 20260830163100 | 79 | 192 | 6.0 | 12.0 | 0.00 | 0.00 | 0.00 | 42 | 1021.8 |
| 20260830163002 | 79 | 154 | 6.0 | 12.0 | 0.00 | 0.00 | 0.00 | 41 | 1021.9 |
| 20260830162901 | 79 | 150 | 5.0 | 12.0 | 0.00 | 0.00 | 0.00 | 41 | 1021.9 |
| 20260830162800 | 79 | 159 | 5.0 | 12.0 | 0.00 | 0.00 | 0.00 | 41 | 1021.9 |
| 20260830162659 | 79 | 143 | 5.0 | 12.0 | 0.00 | 0.00 | 0.00 | 40 | 1021.9 |
| 20260830162553 | 79 | 173 | 4.0 | 10.0 | 0.00 | 0.00 | 0.00 | 39 | 1021.9 |
| 20260830162452 | 79 | 119 | 3.0 | 10.0 | 0.00 | 0.00 | 0.00 | 40 | 1021.9 |
| 20260830162352 | 79 | 185 | 3.0 | 8.0 | 0.00 | 0.00 | 0.00 | 37 | 1021.9 |
| 20260830162253 | 79 | 168 | 3.0 | 7.0 | 0.00 | 0.00 | 0.00 | 37 | 1021.9 |
| 20260830162152 | 79 | 122 | 3.0 | 7.0 | 0.00 | 0.00 | 0.00 | 38 | 1021.8 |
| 20260830162052 | 79 | 178 | 2.0 | 7.0 | 0.00 | 0.00 | 0.00 | 37 | 1021.9 |
| 20260830161957 | 79 | 143 | 2.0 | 6.0 | 0.00 | 0.00 | 0.00 | 37 | 1021.9 |
| 20260830161748 | 79 | 288 | 2.0 | 6.0 | 0.00 | 0.00 | 0.00 | 38 | 1021.9 |
| 20260830161647 | 79 | 348 | 3.0 | 5.0 | 0.00 | 0.00 | 0.00 | 38 | 1021.9 |
| 20260830161543 | 79 | 293 | 3.0 | 6.0 | 0.00 | 0.00 | 0.00 | 37 | 1021.9 |
| 20260830161443 | 79 | 64 | 2.0 | 6.0 | 0.00 | 0.00 | 0.00 | 37 | 1021.8 |
| 20260830161348 | 79 | 59 | 3.0 | 6.0 | 0.00 | 0.00 | 0.00 | 39 | 1021.8 |
| 20260830161140 | 79 | 335 | 3.0 | 6.0 | 0.00 | 0.00 | 0.00 | 39 | 1021.8 |
| 20260830161042 | 78 | 335 | 3.0 | 6.0 | 0.00 | 0.00 | 0.00 | 40 | 1021.9 |
| 20260830160835 | 78 | 302 | 2.0 | 6.0 | 0.00 | 0.00 | 0.00 | 41 | 1021.9 |
| 20260830160734 | 78 | 319 | 2.0 | 6.0 | 0.00 | 0.00 | 0.00 | 40 | 1021.9 |
| 20260830160634 | 78 | 0 | 2.0 | 5.0 | 0.00 | 0.00 | 0.00 | 38 | 1021.9 |
| 20260830160535 | 78 | 14 | 2.0 | 5.0 | 0.00 | 0.00 | 0.00 | 40 | 1021.9 |
| 20260830160433 | 78 | 14 | 2.0 | 5.0 | 0.00 | 0.00 | 0.00 | 41 | 1021.9 |
| 20260830160332 | 77 | 347 | 2.0 | 5.0 | 0.00 | 0.00 | 0.00 | 39 | 1021.9 |
| 20260830160231 | 77 | 302 | 2.0 | 5.0 | 0.00 | 0.00 | 0.00 | 39 | 1021.9 |
| 20260830160128 | 77 | 329 | 2.0 | 5.0 | 0.00 | 0.00 | 0.00 | 41 | 1021.9 |
| 20260830160026 | 77 | 305 | 2.0 | 8.0 | 0.00 | 0.00 | 0.00 | 40 | 1021.9 |
| 20260830155923 | 77 | 331 | 3.0 | 8.0 | 0.00 | 0.00 | 0.00 | 42 | 1021.9 |
| 20260830155823 | 77 | 331 | 3.0 | 8.0 | 0.00 | 0.00 | 0.00 | 41 | 1021.9 |
| 20260830155723 | 76 | 271 | 3.0 | 8.0 | 0.00 | 0.00 | 0.00 | 40 | 1021.8 |
| 20260830155621 | 76 | 287 | 3.0 | 8.0 | 0.00 | 0.00 | 0.00 | 40 | 1021.9 |
| 20260830155521 | 76 | 287 | 3.0 | 8.0 | 0.00 | 0.00 | 0.00 | 42 | 1021.9 |
| 20260830155421 | 76 | 287 | 4.0 | 8.0 | 0.00 | 0.00 | 0.00 | 40 | 1021.9 |
| 20260830155325 | 76 | 287 | 4.0 | 8.0 | 0.00 | 0.00 | 0.00 | 40 | 1022.0 |
| 20260830155116 | 76 | 257 | 4.0 | 8.0 | 0.00 | 0.00 | 0.00 | 41 | 1022.0 |
| 20260830155010 | 76 | 332 | 4.0 | 8.0 | 0.00 | 0.00 | 0.00 | 43 | 1021.9 |
| 20260830154911 | 76 | 287 | 4.0 | 10.0 | 0.00 | 0.00 | 0.00 | 41 | 1021.9 |
| 20260830154832 | 75 | 287 | 5.0 | 10.0 | 0.00 | 0.00 | 0.00 | 43 | 1022.0 |
| 20260830154718 | 75 | 322 | 5.0 | 10.0 | 0.00 | 0.00 | 0.00 | 42 | 1022.0 |
| 20260830154406 | 75 | 309 | 5.0 | 11.0 | 0.00 | 0.00 | 0.00 | 42 | 1022.0 |
| 20260830154308 | 75 | 259 | 5.0 | 11.0 | 0.00 | 0.00 | 0.00 | 43 | 1022.2 |
| 20260830154206 | 75 | 314 | 5.0 | 11.0 | 0.00 | 0.00 | 0.00 | 42 | 1022.0 |
| 20260830154104 | 75 | 342 | 5.0 | 11.0 | 0.00 | 0.00 | 0.00 | 42 | 1022.0 |
| 20260830154001 | 75 | 326 | 5.0 | 11.0 | 0.00 | 0.00 | 0.00 | 42 | 1022.0 |
| 20260830153905 | 75 | 319 | 5.0 | 11.0 | 0.00 | 0.00 | 0.00 | 42 | 1022.2 |
| 20260830153659 | 74 | 355 | 5.0 | 11.0 | 0.00 | 0.00 | 0.00 | 43 | 1022.2 |
| 20260830153558 | 74 | 0 | 5.0 | 11.0 | 0.00 | 0.00 | 0.00 | 43 | 1022.0 |
| 20260830153455 | 74 | 328 | 5.0 | 11.0 | 0.00 | 0.00 | 0.00 | 43 | 1022.2 |
| 20260830153354 | 74 | 0 | 5.0 | 11.0 | 0.00 | 0.00 | 0.00 | 43 | 1022.0 |
| 20260830153255 | 74 | 338 | 5.0 | 11.0 | 0.00 | 0.00 | 0.00 | 43 | 1022.0 |
| 20260830153155 | 74 | 0 | 5.0 | 11.0 | 0.00 | 0.00 | 0.00 | 43 | 1022.0 |
| 20260830153053 | 74 | 304 | 5.0 | 11.0 | 0.00 | 0.00 | 0.00 | 43 | 1022.0 |
| 20260830153001 | 74 | 319 | 5.0 | 10.0 | 0.00 | 0.00 | 0.00 | 44 | 1022.0 |
| 20260830152647 | 73 | 316 | 5.0 | 10.0 | 0.00 | 0.00 | 0.00 | 45 | 1022.0 |
| 20260830152546 | 73 | 323 | 5.0 | 11.0 | 0.00 | 0.00 | 0.00 | 44 | 1022.0 |
| 20260830152441 | 73 | 15 | 5.0 | 11.0 | 0.00 | 0.00 | 0.00 | 44 | 1022.0 |
| 20260830152340 | 73 | 276 | 5.0 | 11.0 | 0.00 | 0.00 | 0.00 | 44 | 1022.2 |
| 20260830152240 | 73 | 350 | 6.0 | 11.0 | 0.00 | 0.00 | 0.00 | 45 | 1022.0 |
| 20260830152151 | 72 | 5 | 6.0 | 11.0 | 0.00 | 0.00 | 0.00 | 45 | 1022.0 |
| 20260830152144 | 72 | 334 | 5.0 | 11.0 | 0.00 | 0.00 | 0.00 | 45 | 1022.0 |
| 20260830151934 | 72 | 344 | 5.0 | 11.0 | 0.00 | 0.00 | 0.00 | 46 | 1022.0 |
| 20260830151835 | 72 | 339 | 5.0 | 11.0 | 0.00 | 0.00 | 0.00 | 45 | 1022.2 |
| 20260830151735 | 72 | 307 | 5.0 | 11.0 | 0.00 | 0.00 | 0.00 | 46 | 1022.3 |
| 20260830151636 | 71 | 338 | 4.0 | 11.0 | 0.00 | 0.00 | 0.00 | 46 | 1022.3 |
| 20260830151535 | 71 | 327 | 4.0 | 10.0 | 0.00 | 0.00 | 0.00 | 47 | 1022.4 |
| 20260830151429 | 71 | 287 | 4.0 | 9.0 | 0.00 | 0.00 | 0.00 | 48 | 1022.3 |
| 20260830151335 | 71 | 322 | 3.0 | 7.0 | 0.00 | 0.00 | 0.00 | 48 | 1022.4 |
| 20260830151129 | 71 | 335 | 2.0 | 7.0 | 0.00 | 0.00 | 0.00 | 50 | 1022.4 |
| 20260830151029 | 70 | 339 | 2.0 | 7.0 | 0.00 | 0.00 | 0.00 | 50 | 1022.5 |
| 20260830150925 | 70 | 299 | 2.0 | 7.0 | 0.00 | 0.00 | 0.00 | 49 | 1022.5 |
| 20260830150831 | 70 | 296 | 1.0 | 7.0 | 0.00 | 0.00 | 0.00 | 51 | 1022.4 |
| 20260830150625 | 70 | 313 | 1.0 | 4.0 | 0.00 | 0.00 | 0.00 | 58 | 1022.5 |
| 20260830150530 | 70 | 313 | 0.0 | 4.0 | 0.00 | 0.00 | 0.00 | 58 | 1022.4 |
| 20260830150320 | 69 | 260 | 0.0 | 2.0 | 0.00 | 0.00 | 0.00 | 57 | 1022.4 |
| 20260830150226 | 69 | 260 | 0.0 | 2.0 | 0.00 | 0.00 | 0.00 | 57 | 1022.4 |
| 20260830150016 | 69 | 260 | 0.0 | 2.0 | 0.00 | 0.00 | 0.00 | 55 | 1022.4 |
| 20260830145921 | 69 | 260 | 0.0 | 2.0 | 0.00 | 0.00 | 0.00 | 55 | 1022.4 |
| 20260830145715 | 69 | 260 | 1.0 | 3.0 | 0.00 | 0.00 | 0.00 | 54 | 1022.3 |
| 20260830145612 | 69 | 260 | 1.0 | 3.0 | 0.00 | 0.00 | 0.00 | 54 | 1022.3 |
| 20260830145510 | 69 | 260 | 1.0 | 3.0 | 0.00 | 0.00 | 0.00 | 55 | 1022.2 |
| 20260830145409 | 69 | 260 | 1.0 | 3.0 | 0.00 | 0.00 | 0.00 | 54 | 1022.3 |
| 20260830145308 | 69 | 260 | 1.0 | 3.0 | 0.00 | 0.00 | 0.00 | 55 | 1022.0 |
| 20260830145208 | 68 | 260 | 1.0 | 3.0 | 0.00 | 0.00 | 0.00 | 55 | 1022.0 |
| 20260830145116 | 68 | 260 | 1.0 | 3.0 | 0.00 | 0.00 | 0.00 | 55 | 1022.0 |
| 20260830145004 | 68 | 260 | 1.0 | 3.0 | 0.00 | 0.00 | 0.00 | 55 | 1022.0 |
| 20260830144859 | 68 | 260 | 1.0 | 3.0 | 0.00 | 0.00 | 0.00 | 55 | 1022.0 |
| 20260830144758 | 68 | 260 | 1.0 | 3.0 | 0.00 | 0.00 | 0.00 | 55 | 1021.9 |
| 20260830144706 | 68 | 260 | 1.0 | 3.0 | 0.00 | 0.00 | 0.00 | 55 | 1021.8 |
| 20260830144458 | 68 | 260 | 1.0 | 3.0 | 0.00 | 0.00 | 0.00 | 56 | 1021.8 |
| 20260830144359 | 68 | 260 | 1.0 | 3.0 | 0.00 | 0.00 | 0.00 | 56 | 1021.8 |
| 20260830144257 | 68 | 260 | 1.0 | 3.0 | 0.00 | 0.00 | 0.00 | 56 | 1021.8 |
| 20260830144156 | 68 | 260 | 1.0 | 3.0 | 0.00 | 0.00 | 0.00 | 56 | 1021.8 |
| 20260830144054 | 68 | 260 | 1.0 | 2.0 | 0.00 | 0.00 | 0.00 | 56 | 1021.7 |
| 20260830143952 | 67 | 260 | 1.0 | 2.0 | 0.00 | 0.00 | 0.00 | 55 | 1021.8 |
| 20260830143854 | 67 | 260 | 1.0 | 2.0 | 0.00 | 0.00 | 0.00 | 55 | 1021.7 |
| 20260830143647 | 67 | 260 | 1.0 | 2.0 | 0.00 | 0.00 | 0.00 | 55 | 1021.7 |
| 20260830143558 | 67 | 260 | 1.0 | 2.0 | 0.00 | 0.00 | 0.00 | 55 | 1021.7 |
| 20260830143551 | 67 | 260 | 1.0 | 2.0 | 0.00 | 0.00 | 0.00 | 55 | 1021.7 |
| 20260830143354 | 67 | 260 | 1.0 | 2.0 | 0.00 | 0.00 | 0.00 | 55 | 1021.7 |
| 20260830143040 | 67 | 260 | 0.0 | 2.0 | 0.00 | 0.00 | 0.00 | 55 | 1021.6 |
| 20260830142940 | 67 | 260 | 1.0 | 2.0 | 0.00 | 0.00 | 0.00 | 55 | 1021.6 |
| 20260830142837 | 67 | 260 | 1.0 | 2.0 | 0.00 | 0.00 | 0.00 | 55 | 1021.6 |
| 20260830142742 | 67 | 260 | 1.0 | 3.0 | 0.00 | 0.00 | 0.00 | 55 | 1021.7 |
| 20260830142534 | 67 | 260 | 2.0 | 5.0 | 0.00 | 0.00 | 0.00 | 55 | 1021.7 |
| 20260830142434 | 67 | 260 | 2.0 | 5.0 | 0.00 | 0.00 | 0.00 | 55 | 1021.7 |
| 20260830142330 | 67 | 260 | 2.0 | 5.0 | 0.00 | 0.00 | 0.00 | 55 | 1021.6 |
| 20260830142229 | 67 | 260 | 2.0 | 5.0 | 0.00 | 0.00 | 0.00 | 55 | 1021.6 |
| 20260830142129 | 67 | 260 | 2.0 | 5.0 | 0.00 | 0.00 | 0.00 | 55 | 1021.7 |
| 20260830142028 | 67 | 260 | 2.0 | 5.0 | 0.00 | 0.00 | 0.00 | 55 | 1021.7 |
| 20260830141930 | 67 | 260 | 2.0 | 5.0 | 0.00 | 0.00 | 0.00 | 54 | 1021.7 |
| 20260830141722 | 67 | 260 | 2.0 | 5.0 | 0.00 | 0.00 | 0.00 | 55 | 1021.7 |
| 20260830141629 | 67 | 244 | 2.0 | 5.0 | 0.00 | 0.00 | 0.00 | 55 | 1021.8 |
| 20260830141422 | 67 | 216 | 2.0 | 4.0 | 0.00 | 0.00 | 0.00 | 56 | 1021.8 |
| 20260830141327 | 66 | 249 | 2.0 | 4.0 | 0.00 | 0.00 | 0.00 | 56 | 1021.9 |
| 20260830141120 | 66 | 249 | 1.0 | 4.0 | 0.00 | 0.00 | 0.00 | 57 | 1021.9 |
| 20260830141019 | 66 | 249 | 1.0 | 4.0 | 0.00 | 0.00 | 0.00 | 57 | 1021.9 |
| 20260830140916 | 66 | 249 | 1.0 | 4.0 | 0.00 | 0.00 | 0.00 | 58 | 1021.8 |
| 20260830140814 | 66 | 221 | 1.0 | 4.0 | 0.00 | 0.00 | 0.00 | 57 | 1021.9 |
| 20260830140714 | 66 | 214 | 1.0 | 4.0 | 0.00 | 0.00 | 0.00 | 57 | 1021.8 |
| 20260830140614 | 66 | 227 | 1.0 | 4.0 | 0.00 | 0.00 | 0.00 | 57 | 1021.8 |
| 20260830140513 | 66 | 227 | 0.0 | 4.0 | 0.00 | 0.00 | 0.00 | 56 | 1021.8 |
| 20260830140410 | 66 | 227 | 0.0 | 2.0 | 0.00 | 0.00 | 0.00 | 57 | 1021.8 |
| 20260830140310 | 66 | 227 | 0.0 | 3.0 | 0.00 | 0.00 | 0.00 | 56 | 1021.8 |
| 20260830140209 | 66 | 227 | 1.0 | 3.0 | 0.00 | 0.00 | 0.00 | 56 | 1021.8 |
| 20260830140113 | 66 | 227 | 1.0 | 3.0 | 0.00 | 0.00 | 0.00 | 56 | 1021.8 |
| 20260830135904 | 66 | 227 | 1.0 | 3.0 | 0.00 | 0.00 | 0.00 | 56 | 1021.8 |
| 20260830135805 | 66 | 227 | 1.0 | 3.0 | 0.00 | 0.00 | 0.00 | 55 | 1021.8 |
| 20260830135703 | 66 | 227 | 1.0 | 3.0 | 0.00 | 0.00 | 0.00 | 55 | 1021.8 |
| 20260830135603 | 66 | 227 | 1.0 | 3.0 | 0.00 | 0.00 | 0.00 | 55 | 1021.8 |
| 20260830135501 | 66 | 227 | 1.0 | 3.0 | 0.00 | 0.00 | 0.00 | 56 | 1021.8 |
| 20260830135358 | 66 | 227 | 1.0 | 3.0 | 0.00 | 0.00 | 0.00 | 56 | 1021.8 |
| 20260830135255 | 66 | 227 | 1.0 | 3.0 | 0.00 | 0.00 | 0.00 | 57 | 1021.8 |
| 20260830135152 | 66 | 227 | 1.0 | 3.0 | 0.00 | 0.00 | 0.00 | 57 | 1021.8 |
| 20260830135059 | 66 | 227 | 1.0 | 3.0 | 0.00 | 0.00 | 0.00 | 56 | 1021.8 |
| 20260830134852 | 66 | 227 | 1.0 | 2.0 | 0.00 | 0.00 | 0.00 | 56 | 1021.7 |
| 20260830134747 | 66 | 227 | 1.0 | 3.0 | 0.00 | 0.00 | 0.00 | 55 | 1021.7 |
| 20260830134646 | 66 | 227 | 1.0 | 3.0 | 0.00 | 0.00 | 0.00 | 56 | 1021.8 |
| 20260830134546 | 66 | 227 | 1.0 | 4.0 | 0.00 | 0.00 | 0.00 | 55 | 1021.7 |
| 20260830134457 | 66 | 227 | 1.0 | 4.0 | 0.00 | 0.00 | 0.00 | 55 | 1021.6 |
| 20260830134346 | 66 | 227 | 2.0 | 5.0 | 0.00 | 0.00 | 0.00 | 55 | 1021.7 |
| 20260830134240 | 66 | 227 | 2.0 | 5.0 | 0.00 | 0.00 | 0.00 | 55 | 1021.6 |
| 20260830134141 | 66 | 227 | 2.0 | 5.0 | 0.00 | 0.00 | 0.00 | 54 | 1021.6 |
| 20260830134041 | 66 | 227 | 2.0 | 5.0 | 0.00 | 0.00 | 0.00 | 55 | 1021.5 |
| 20260830133952 | 66 | 227 | 2.0 | 5.0 | 0.00 | 0.00 | 0.00 | 55 | 1021.5 |
| 20260830133945 | 66 | 227 | 2.0 | 5.0 | 0.00 | 0.00 | 0.00 | 55 | 1021.5 |
| 20260830133737 | 66 | 227 | 2.0 | 5.0 | 0.00 | 0.00 | 0.00 | 55 | 1021.5 |
| 20260830133635 | 66 | 232 | 2.0 | 5.0 | 0.00 | 0.00 | 0.00 | 56 | 1021.5 |
| 20260830133534 | 66 | 191 | 1.0 | 5.0 | 0.00 | 0.00 | 0.00 | 56 | 1021.5 |
| 20260830133451 | 66 | 191 | 1.0 | 5.0 | 0.00 | 0.00 | 0.00 | 55 | 1021.5 |
| 20260830133445 | 66 | 187 | 1.0 | 4.0 | 0.00 | 0.00 | 0.00 | 55 | 1021.6 |
| 20260830133133 | 66 | 350 | 1.0 | 4.0 | 0.00 | 0.00 | 0.00 | 53 | 1021.6 |
| 20260830133033 | 66 | 350 | 2.0 | 4.0 | 0.00 | 0.00 | 0.00 | 53 | 1021.5 |
| 20260830132931 | 66 | 350 | 2.0 | 4.0 | 0.00 | 0.00 | 0.00 | 53 | 1021.5 |
| 20260830132829 | 66 | 350 | 2.0 | 4.0 | 0.00 | 0.00 | 0.00 | 52 | 1021.5 |
| 20260830132723 | 66 | 350 | 2.0 | 5.0 | 0.00 | 0.00 | 0.00 | 52 | 1021.5 |
| 20260830132623 | 66 | 350 | 2.0 | 5.0 | 0.00 | 0.00 | 0.00 | 53 | 1021.6 |
| 20260830132522 | 66 | 350 | 2.0 | 5.0 | 0.00 | 0.00 | 0.00 | 53 | 1021.6 |
| 20260830132434 | 66 | 350 | 2.0 | 5.0 | 0.00 | 0.00 | 0.00 | 53 | 1021.5 |
| 20260830132323 | 66 | 329 | 3.0 | 5.0 | 0.00 | 0.00 | 0.00 | 53 | 1021.6 |
| 20260830132124 | 66 | 330 | 3.0 | 9.0 | 0.00 | 0.00 | 0.00 | 54 | 1021.5 |
| 20260830131916 | 66 | 329 | 3.0 | 9.0 | 0.00 | 0.00 | 0.00 | 54 | 1021.5 |
| 20260830131816 | 66 | 329 | 3.0 | 9.0 | 0.00 | 0.00 | 0.00 | 54 | 1021.5 |
| 20260830131711 | 66 | 315 | 4.0 | 9.0 | 0.00 | 0.00 | 0.00 | 54 | 1021.3 |
| 20260830131611 | 66 | 315 | 4.0 | 9.0 | 0.00 | 0.00 | 0.00 | 54 | 1021.5 |
| 20260830131510 | 66 | 335 | 4.0 | 10.0 | 0.00 | 0.00 | 0.00 | 54 | 1021.5 |
| 20260830131410 | 66 | 334 | 5.0 | 10.0 | 0.00 | 0.00 | 0.00 | 54 | 1021.5 |
| 20260830131310 | 66 | 330 | 5.0 | 10.0 | 0.00 | 0.00 | 0.00 | 54 | 1021.5 |
| 20260830131212 | 66 | 318 | 5.0 | 10.0 | 0.00 | 0.00 | 0.00 | 54 | 1021.5 |
| 20260830131030 | 66 | 305 | 5.0 | 10.0 | 0.00 | 0.00 | 0.00 | 54 | 1021.5 |
| 20260830130916 | 66 | 289 | 6.0 | 10.0 | 0.00 | 0.00 | 0.00 | 53 | 1021.5 |
| 20260830130459 | 65 | 292 | 6.0 | 11.0 | 0.00 | 0.00 | 0.00 | 53 | 1021.3 |
| 20260830130409 | 65 | 312 | 6.0 | 11.0 | 0.00 | 0.00 | 0.00 | 53 | 1021.3 |
| 20260830130402 | 65 | 344 | 6.0 | 11.0 | 0.00 | 0.00 | 0.00 | 54 | 1021.3 |
| 20260830130152 | 65 | 294 | 6.0 | 11.0 | 0.00 | 0.00 | 0.00 | 54 | 1021.3 |
| 20260830130052 | 65 | 299 | 6.0 | 11.0 | 0.00 | 0.00 | 0.00 | 55 | 1021.5 |
| 20260830125952 | 65 | 342 | 6.0 | 11.0 | 0.00 | 0.00 | 0.00 | 54 | 1021.5 |
| 20260830125903 | 65 | 302 | 6.0 | 11.0 | 0.00 | 0.00 | 0.00 | 55 | 1021.5 |
| 20260830125856 | 65 | 292 | 6.0 | 11.0 | 0.00 | 0.00 | 0.00 | 55 | 1021.5 |
| 20260830125648 | 65 | 321 | 6.0 | 9.0 | 0.00 | 0.00 | 0.00 | 54 | 1021.5 |
| 20260830125548 | 65 | 284 | 6.0 | 9.0 | 0.00 | 0.00 | 0.00 | 55 | 1021.6 |
| 20260830125449 | 65 | 273 | 6.0 | 10.0 | 0.00 | 0.00 | 0.00 | 55 | 1021.6 |
| 20260830125348 | 65 | 281 | 6.0 | 10.0 | 0.00 | 0.00 | 0.00 | 55 | 1021.6 |
| 20260830125246 | 65 | 271 | 6.0 | 10.0 | 0.00 | 0.00 | 0.00 | 54 | 1021.6 |
| 20260830125141 | 65 | 263 | 6.0 | 10.0 | 0.00 | 0.00 | 0.00 | 55 | 1021.6 |
| 20260830125041 | 65 | 314 | 6.0 | 10.0 | 0.00 | 0.00 | 0.00 | 55 | 1021.6 |
| 20260830124940 | 65 | 267 | 6.0 | 10.0 | 0.00 | 0.00 | 0.00 | 56 | 1021.6 |
| 20260830124851 | 65 | 323 | 5.0 | 10.0 | 0.00 | 0.00 | 0.00 | 55 | 1021.6 |
| 20260830124844 | 65 | 298 | 6.0 | 10.0 | 0.00 | 0.00 | 0.00 | 56 | 1021.6 |
| 20260830124636 | 65 | 328 | 5.0 | 10.0 | 0.00 | 0.00 | 0.00 | 58 | 1021.6 |
| 20260830124536 | 65 | 312 | 6.0 | 10.0 | 0.00 | 0.00 | 0.00 | 58 | 1021.6 |
| 20260830124436 | 65 | 331 | 6.0 | 10.0 | 0.00 | 0.00 | 0.00 | 58 | 1021.5 |
| 20260830124345 | 65 | 277 | 5.0 | 10.0 | 0.00 | 0.00 | 0.00 | 56 | 1021.5 |
| 20260830124338 | 65 | 288 | 5.0 | 10.0 | 0.00 | 0.00 | 0.00 | 56 | 1021.5 |
| 20260830124136 | 65 | 298 | 5.0 | 10.0 | 0.00 | 0.00 | 0.00 | 56 | 1021.5 |
| 20260830123929 | 65 | 299 | 5.0 | 10.0 | 0.00 | 0.00 | 0.00 | 57 | 1021.3 |
| 20260830123829 | 65 | 319 | 5.0 | 10.0 | 0.00 | 0.00 | 0.00 | 57 | 1021.3 |
| 20260830123729 | 64 | 295 | 5.0 | 9.0 | 0.00 | 0.00 | 0.00 | 57 | 1021.3 |
| 20260830123623 | 64 | 295 | 4.0 | 9.0 | 0.00 | 0.00 | 0.00 | 57 | 1021.2 |
| 20260830123529 | 64 | 303 | 4.0 | 9.0 | 0.00 | 0.00 | 0.00 | 58 | 1021.3 |
| 20260830123322 | 64 | 300 | 4.0 | 9.0 | 0.00 | 0.00 | 0.00 | 59 | 1021.3 |
| 20260830123222 | 64 | 280 | 4.0 | 9.0 | 0.00 | 0.00 | 0.00 | 59 | 1021.2 |
| 20260830123118 | 63 | 281 | 4.0 | 8.0 | 0.00 | 0.00 | 0.00 | 59 | 1021.3 |
| 20260830123019 | 63 | 308 | 4.0 | 7.0 | 0.00 | 0.00 | 0.00 | 59 | 1021.3 |
| 20260830122918 | 63 | 302 | 4.0 | 8.0 | 0.00 | 0.00 | 0.00 | 59 | 1021.3 |
| 20260830122818 | 63 | 302 | 4.0 | 8.0 | 0.00 | 0.00 | 0.00 | 59 | 1021.3 |
| 20260830122715 | 63 | 296 | 4.0 | 8.0 | 0.00 | 0.00 | 0.00 | 59 | 1021.3 |
| 20260830122610 | 63 | 296 | 4.0 | 8.0 | 0.00 | 0.00 | 0.00 | 60 | 1021.2 |
| 20260830122511 | 63 | 321 | 4.0 | 8.0 | 0.00 | 0.00 | 0.00 | 60 | 1021.2 |
| 20260830122410 | 63 | 313 | 4.0 | 8.0 | 0.00 | 0.00 | 0.00 | 60 | 1021.2 |
| 20260830122310 | 62 | 290 | 4.0 | 8.0 | 0.00 | 0.00 | 0.00 | 61 | 1021.2 |
| 20260830122213 | 62 | 281 | 4.0 | 8.0 | 0.00 | 0.00 | 0.00 | 61 | 1021.2 |
| 20260830122007 | 62 | 270 | 4.0 | 8.0 | 0.00 | 0.00 | 0.00 | 62 | 1021.1 |
| 20260830121907 | 62 | 283 | 4.0 | 8.0 | 0.00 | 0.00 | 0.00 | 62 | 1021.1 |
| 20260830121806 | 61 | 300 | 4.0 | 8.0 | 0.00 | 0.00 | 0.00 | 62 | 1021.1 |
| 20260830121704 | 61 | 291 | 4.0 | 9.0 | 0.00 | 0.00 | 0.00 | 62 | 1021.1 |
| 20260830121559 | 61 | 283 | 4.0 | 9.0 | 0.00 | 0.00 | 0.00 | 63 | 1021.1 |
| 20260830121459 | 61 | 281 | 4.0 | 9.0 | 0.00 | 0.00 | 0.00 | 63 | 1021.1 |
| 20260830121359 | 61 | 312 | 4.0 | 9.0 | 0.00 | 0.00 | 0.00 | 64 | 1021.1 |
| 20260830121259 | 61 | 287 | 4.0 | 9.0 | 0.00 | 0.00 | 0.00 | 65 | 1021.1 |
| 20260830121158 | 60 | 278 | 4.0 | 9.0 | 0.00 | 0.00 | 0.00 | 66 | 1021.1 |
| 20260830121054 | 60 | 286 | 4.0 | 9.0 | 0.00 | 0.00 | 0.00 | 66 | 1021.1 |
| 20260830120952 | 60 | 245 | 3.0 | 9.0 | 0.00 | 0.00 | 0.00 | 67 | 1021.2 |
| 20260830120852 | 60 | 263 | 3.0 | 9.0 | 0.00 | 0.00 | 0.00 | 67 | 1021.1 |
| 20260830120752 | 60 | 310 | 3.0 | 9.0 | 0.00 | 0.00 | 0.00 | 68 | 1021.1 |
| 20260830120657 | 60 | 249 | 3.0 | 5.0 | 0.00 | 0.00 | 0.00 | 67 | 1021.1 |
| 20260830120450 | 59 | 296 | 2.0 | 4.0 | 0.00 | 0.00 | 0.00 | 66 | 1021.0 |
| 20260830120350 | 59 | 296 | 2.0 | 4.0 | 0.00 | 0.00 | 0.00 | 66 | 1021.0 |
| 20260830120248 | 59 | 296 | 2.0 | 4.0 | 0.00 | 0.00 | 0.00 | 65 | 1020.9 |
| 20260830120146 | 59 | 296 | 2.0 | 4.0 | 0.00 | 0.00 | 0.00 | 65 | 1020.9 |
| 20260830120047 | 59 | 296 | 1.0 | 4.0 | 0.00 | 0.00 | 0.00 | 65 | 1020.9 |
| 20260830115840 | 59 | 296 | 1.0 | 3.0 | 0.00 | 0.00 | 0.00 | 64 | 1020.7 |
| 20260830115751 | 59 | 296 | 1.0 | 2.0 | 0.00 | 0.00 | 0.00 | 64 | 1020.7 |
| 20260830115640 | 59 | 296 | 1.0 | 2.0 | 0.00 | 0.00 | 0.00 | 64 | 1020.7 |
| 20260830115538 | 59 | 296 | 1.0 | 2.0 | 0.00 | 0.00 | 0.00 | 64 | 1020.7 |
| 20260830115434 | 59 | 296 | 1.0 | 2.0 | 0.00 | 0.00 | 0.00 | 63 | 1020.7 |
| 20260830115335 | 59 | 296 | 1.0 | 2.0 | 0.00 | 0.00 | 0.00 | 63 | 1020.7 |
| 20260830115234 | 59 | 296 | 1.0 | 2.0 | 0.00 | 0.00 | 0.00 | 63 | 1020.7 |
| 20260830115137 | 59 | 296 | 1.0 | 2.0 | 0.00 | 0.00 | 0.00 | 63 | 1020.7 |
| 20260830114929 | 60 | 296 | 0.0 | 2.0 | 0.00 | 0.00 | 0.00 | 63 | 1020.9 |
| 20260830114828 | 60 | 296 | 0.0 | 2.0 | 0.00 | 0.00 | 0.00 | 63 | 1020.9 |
| 20260830114728 | 60 | 296 | 1.0 | 2.0 | 0.00 | 0.00 | 0.00 | 63 | 1020.7 |
| 20260830114628 | 60 | 296 | 1.0 | 2.0 | 0.00 | 0.00 | 0.00 | 62 | 1020.7 |
| 20260830114529 | 60 | 296 | 1.0 | 2.0 | 0.00 | 0.00 | 0.00 | 62 | 1020.7 |
| 20260830114427 | 60 | 296 | 1.0 | 2.0 | 0.00 | 0.00 | 0.00 | 62 | 1020.7 |
| 20260830114327 | 60 | 296 | 1.0 | 2.0 | 0.00 | 0.00 | 0.00 | 63 | 1020.7 |
| 20260830114225 | 60 | 296 | 1.0 | 2.0 | 0.00 | 0.00 | 0.00 | 63 | 1020.6 |
| 20260830114127 | 60 | 296 | 1.0 | 2.0 | 0.00 | 0.00 | 0.00 | 63 | 1020.6 |
| 20260830113920 | 60 | 296 | 0.0 | 2.0 | 0.00 | 0.00 | 0.00 | 62 | 1020.7 |
| 20260830113821 | 60 | 296 | 0.0 | 2.0 | 0.00 | 0.00 | 0.00 | 62 | 1020.7 |
| 20260830113727 | 60 | 296 | 0.0 | 2.0 | 0.00 | 0.00 | 0.00 | 61 | 1020.6 |
| 20260830113616 | 60 | 296 | 0.0 | 2.0 | 0.00 | 0.00 | 0.00 | 61 | 1020.6 |
| 20260830113516 | 60 | 296 | 0.0 | 2.0 | 0.00 | 0.00 | 0.00 | 61 | 1020.5 |
| 20260830113415 | 60 | 296 | 0.0 | 1.0 | 0.00 | 0.00 | 0.00 | 61 | 1020.5 |
| 20260830113314 | 60 | 296 | 0.0 | 2.0 | 0.00 | 0.00 | 0.00 | 61 | 1020.4 |
| 20260830113213 | 60 | 296 | 0.0 | 2.0 | 0.00 | 0.00 | 0.00 | 60 | 1020.4 |
| 20260830113110 | 60 | 296 | 1.0 | 2.0 | 0.00 | 0.00 | 0.00 | 60 | 1020.4 |
| 20260830113008 | 60 | 296 | 1.0 | 3.0 | 0.00 | 0.00 | 0.00 | 60 | 1020.4 |
| 20260830112908 | 60 | 296 | 1.0 | 3.0 | 0.00 | 0.00 | 0.00 | 60 | 1020.4 |
| 20260830112808 | 60 | 296 | 1.0 | 3.0 | 0.00 | 0.00 | 0.00 | 60 | 1020.4 |
| 20260830112715 | 60 | 296 | 1.0 | 3.0 | 0.00 | 0.00 | 0.00 | 60 | 1020.4 |
| 20260830112604 | 60 | 296 | 1.0 | 3.0 | 0.00 | 0.00 | 0.00 | 60 | 1020.5 |
| 20260830112509 | 60 | 296 | 1.0 | 3.0 | 0.00 | 0.00 | 0.00 | 59 | 1020.5 |
| 20260830112305 | 60 | 296 | 1.0 | 3.0 | 0.00 | 0.00 | 0.00 | 59 | 1020.5 |
| 20260830112204 | 61 | 296 | 1.0 | 3.0 | 0.00 | 0.00 | 0.00 | 59 | 1020.5 |
| 20260830111852 | 61 | 296 | 1.0 | 3.0 | 0.00 | 0.00 | 0.00 | 59 | 1020.6 |
| 20260830111752 | 61 | 296 | 1.0 | 3.0 | 0.00 | 0.00 | 0.00 | 59 | 1020.6 |
| 20260830111711 | 61 | 296 | 1.0 | 3.0 | 0.00 | 0.00 | 0.00 | 59 | 1020.6 |
| 20260830111552 | 61 | 296 | 1.0 | 3.0 | 0.00 | 0.00 | 0.00 | 59 | 1020.6 |
| 20260830111452 | 61 | 296 | 1.0 | 3.0 | 0.00 | 0.00 | 0.00 | 59 | 1020.5 |
| 20260830111358 | 61 | 296 | 1.0 | 3.0 | 0.00 | 0.00 | 0.00 | 59 | 1020.5 |
| 20260830111209 | 61 | 296 | 1.0 | 3.0 | 0.00 | 0.00 | 0.00 | 59 | 1020.6 |
| 20260830111049 | 61 | 296 | 2.0 | 3.0 | 0.00 | 0.00 | 0.00 | 58 | 1020.6 |
| 20260830110849 | 61 | 296 | 2.0 | 3.0 | 0.00 | 0.00 | 0.00 | 59 | 1020.7 |
| 20260830110642 | 61 | 296 | 1.0 | 3.0 | 0.00 | 0.00 | 0.00 | 58 | 1020.6 |
| 20260830110600 | 61 | 296 | 1.0 | 3.0 | 0.00 | 0.00 | 0.00 | 58 | 1020.6 |
| 20260830110541 | 61 | 296 | 1.0 | 3.0 | 0.00 | 0.00 | 0.00 | 58 | 1020.7 |
| 20260830110450 | 61 | 296 | 1.0 | 3.0 | 0.00 | 0.00 | 0.00 | 58 | 1020.6 |
| 20260830110146 | 61 | 296 | 1.0 | 3.0 | 0.00 | 0.00 | 0.00 | 58 | 1020.6 |
| 20260830110139 | 61 | 296 | 1.0 | 3.0 | 0.00 | 0.00 | 0.00 | 58 | 1020.6 |
| 20260830105932 | 61 | 296 | 1.0 | 3.0 | 0.00 | 0.00 | 0.00 | 58 | 1020.7 |
| 20260830105833 | 62 | 296 | 1.0 | 3.0 | 0.00 | 0.00 | 0.00 | 58 | 1020.6 |
| 20260830105733 | 62 | 296 | 1.0 | 3.0 | 0.00 | 0.00 | 0.00 | 58 | 1020.7 |
| 20260830105702 | 62 | 296 | 1.0 | 3.0 | 0.00 | 0.00 | 0.00 | 58 | 1020.7 |
| 20260830105535 | 62 | 296 | 1.0 | 3.0 | 0.00 | 0.00 | 0.00 | 58 | 1020.6 |
| 20260830105222 | 62 | 296 | 2.0 | 3.0 | 0.00 | 0.00 | 0.00 | 57 | 1020.6 |
| 20260830105122 | 62 | 296 | 2.0 | 3.0 | 0.00 | 0.00 | 0.00 | 57 | 1020.7 |
| 20260830105056 | 62 | 296 | 2.0 | 3.0 | 0.00 | 0.00 | 0.00 | 57 | 1020.7 |
| 20260830105023 | 62 | 296 | 1.0 | 3.0 | 0.00 | 0.00 | 0.00 | 57 | 1020.7 |
| 20260830104927 | 62 | 296 | 1.0 | 3.0 | 0.00 | 0.00 | 0.00 | 57 | 1020.7 |
| 20260830104725 | 62 | 296 | 1.0 | 3.0 | 0.00 | 0.00 | 0.00 | 57 | 1020.7 |
| 20260830104556 | 62 | 296 | 1.0 | 3.0 | 0.00 | 0.00 | 0.00 | 57 | 1020.7 |
| 20260830104522 | 62 | 296 | 1.0 | 2.0 | 0.00 | 0.00 | 0.00 | 57 | 1020.9 |
| 20260830104322 | 62 | 296 | 1.0 | 3.0 | 0.00 | 0.00 | 0.00 | 56 | 1020.7 |
| 20260830104112 | 62 | 296 | 1.0 | 3.0 | 0.00 | 0.00 | 0.00 | 56 | 1020.7 |
| 20260830104054 | 62 | 296 | 1.0 | 3.0 | 0.00 | 0.00 | 0.00 | 56 | 1020.7 |
| 20260830104011 | 62 | 296 | 1.0 | 3.0 | 0.00 | 0.00 | 0.00 | 56 | 1020.6 |